Observation data for Hobbs on 01/12/2018      Previous  Date  Next       Current Mesonet Observations  Soil Data  Daily Summary Page  Observations in Plain Language
KHO1 120601Z 28001KT M03/M11 A303 RMK A01 T10341108  RH  057%=      5-min Rain = 0
KHO1 120602Z 28001KT M03/M11 A303 RMK A01 T10331108  RH  056%=      5-min Rain = 0
KHO1 120603Z 28001KT M03/M11 A303 RMK A01 T10331107  RH  056%=      5-min Rain = 0
KHO1 120604Z 28001KT M03/M11 A303 RMK A01 T10331107  RH  057%=      5-min Rain = 0
KHO1 120605Z 28001KT M03/M11 A303 RMK A01 T10331107  RH  057%=      5-min Rain = 0
KHO1 120606Z 28001KT M03/M11 A303 RMK A01 T10331106  RH  057%=      5-min Rain = 0
KHO1 120607Z 28000KT M03/M11 A303 RMK A01 T10331106  RH  057%=      5-min Rain = 0
KHO1 120608Z 28000KT M03/M11 A303 RMK A01 T10331106  RH  057%=      5-min Rain = 0
KHO1 120609Z 28001KT M03/M10 A303 RMK A01 T10321102  RH  059%=      5-min Rain = 0
KHO1 120610Z 28001KT M03/M10 A303 RMK A01 T10321099  RH  060%=      5-min Rain = 0
KHO1 120611Z 28001KT M03/M10 A303 RMK A01 T10311098  RH  060%=      5-min Rain = 0
KHO1 120612Z 28000KT M03/M10 A303 RMK A01 T10311098  RH  060%=      5-min Rain = 0
KHO1 120613Z 28000KT M03/M10 A303 RMK A01 T10311098  RH  060%=      5-min Rain = 0
KHO1 120614Z 28000KT M03/M10 A303 RMK A01 T10311098  RH  060%=      5-min Rain = 0
KHO1 120615Z 00000KT M03/M10 A303 RMK A01 T10311099  RH  059%=      5-min Rain = 0
KHO1 120616Z 00000KT M03/M10 A3029 RMK A01 T10301100  RH  059%=      5-min Rain = 0
KHO1 120617Z 00000KT M03/M10 A303 RMK A01 T10301100  RH  058%=      5-min Rain = 0
KHO1 120618Z 33001KT M03/M10 A3029 RMK A01 T10301101  RH  058%=      5-min Rain = 0
KHO1 120619Z 33001KT M03/M10 A303 RMK A01 T10301100  RH  058%=      5-min Rain = 0
KHO1 120620Z 33001KT M03/M10 A303 RMK A01 T10301099  RH  059%=      5-min Rain = 0
KHO1 120621Z 33001KT M03/M10 A303 RMK A01 T10301098  RH  059%=      5-min Rain = 0
KHO1 120622Z 33001KT M03/M10 A303 RMK A01 T10301098  RH  059%=      5-min Rain = 0
KHO1 120623Z 33001KT M03/M10 A303 RMK A01 T10301098  RH  059%=      5-min Rain = 0
KHO1 120624Z 33001KT M03/M10 A303 RMK A01 T10291097  RH  060%=      5-min Rain = 0
KHO1 120625Z 33001KT M03/M10 A303 RMK A01 T10291098  RH  059%=      5-min Rain = 0
KHO1 120626Z 33001KT M03/M10 A303 RMK A01 T10291098  RH  059%=      5-min Rain = 0
KHO1 120627Z 33001KT M03/M10 A303 RMK A01 T10291096  RH  060%=      5-min Rain = 0
KHO1 120628Z 33001KT M03/M09 A303 RMK A01 T10281094  RH  061%=      5-min Rain = 0
KHO1 120629Z 33001KT M03/M09 A303 RMK A01 T10281094  RH  061%=      5-min Rain = 0
KHO1 120630Z 32001KT M03/M09 A303 RMK A01 T10291093  RH  061%=      5-min Rain = 0
KHO1 120631Z 32001KT M03/M09 A303 RMK A01 T10301092  RH  062%=      5-min Rain = 0
KHO1 120632Z 32001KT M03/M09 A303 RMK A01 T10301089  RH  064%=      5-min Rain = 0
KHO1 120633Z 32001KT M03/M09 A303 RMK A01 T10311088  RH  065%=      5-min Rain = 0
KHO1 120634Z 32001KT M03/M09 A303 RMK A01 T10311088  RH  065%=      5-min Rain = 0
KHO1 120635Z 32000KT M03/M09 A303 RMK A01 T10311089  RH  064%=      5-min Rain = 0
KHO1 120636Z 32000KT M03/M09 A303 RMK A01 T10321090  RH  064%=      5-min Rain = 0
KHO1 120637Z 32000KT M03/M09 A303 RMK A01 T10321091  RH  064%=      5-min Rain = 0
KHO1 120638Z 32001KT M03/M09 A303 RMK A01 T10321093  RH  063%=      5-min Rain = 0
KHO1 120639Z 32001KT M03/M10 A303 RMK A01 T10321096  RH  062%=      5-min Rain = 0
KHO1 120640Z 32001KT M03/M10 A303 RMK A01 T10321096  RH  061%=      5-min Rain = 0
KHO1 120641Z 32001KT M03/M10 A303 RMK A01 T10321096  RH  061%=      5-min Rain = 0
KHO1 120642Z 32001KT M03/M10 A303 RMK A01 T10331098  RH  061%=      5-min Rain = 0
KHO1 120643Z 32002KT M03/M10 A303 RMK A01 T10331099  RH  060%=      5-min Rain = 0
KHO1 120644Z 31002KT M03/M10 A303 RMK A01 T10331101  RH  060%=      5-min Rain = 0
KHO1 120645Z 31003KT M03/M10 A303 RMK A01 T10331102  RH  059%=      5-min Rain = 0
KHO1 120646Z 30003KT M03/M11 A303 RMK A01 T10331105  RH  058%=      5-min Rain = 0
KHO1 120647Z 30003KT M03/M11 A303 RMK A01 T10341106  RH  057%=      5-min Rain = 0
KHO1 120648Z 30003KT M04/M11 A303 RMK A01 T10351107  RH  057%=      5-min Rain = 0
KHO1 120649Z 29003KT M04/M11 A303 RMK A01 T10361108  RH  058%=      5-min Rain = 0
KHO1 120650Z 29002KT M04/M11 A3029 RMK A01 T10371106  RH  059%=      5-min Rain = 0
KHO1 120651Z 29002KT M04/M10 A3029 RMK A01 T10371104  RH  059%=      5-min Rain = 0
KHO1 120652Z 29002KT M04/M10 A3029 RMK A01 T10371103  RH  060%=      5-min Rain = 0
KHO1 120653Z 29001KT M04/M10 A3029 RMK A01 T10361102  RH  060%=      5-min Rain = 0
KHO1 120654Z 29001KT M04/M10 A3029 RMK A01 T10361101  RH  060%=      5-min Rain = 0
KHO1 120655Z 29001KT M04/M10 A3029 RMK A01 T10351100  RH  061%=      5-min Rain = 0
KHO1 120656Z 29002KT M04/M10 A3029 RMK A01 T10351100  RH  060%=      5-min Rain = 0
KHO1 120657Z 29002KT M04/M10 A3029 RMK A01 T10351101  RH  060%=      5-min Rain = 0
KHO1 120658Z 28002KT M03/M10 A3029 RMK A01 T10341101  RH  060%=      5-min Rain = 0
KHO1 120659Z 28002KT M03/M10 A3029 RMK A01 T10341101  RH  060%=      5-min Rain = 0
KHO1 120700Z 28002KT M03/M10 A3029 RMK A01 T10341101  RH  060%=      5-min Rain = 0
KHO1 120701Z 28003KT M03/M10 A3029 RMK A01 T10341102  RH  059%=      5-min Rain = 0
KHO1 120702Z 27003KT M03/M10 A3029 RMK A01 T10341103  RH  059%=      5-min Rain = 0
KHO1 120703Z 27003KT M04/M10 A3029 RMK A01 T10351103  RH  059%=      5-min Rain = 0
KHO1 120704Z 27002KT M04/M10 A3029 RMK A01 T10351104  RH  059%=      5-min Rain = 0
KHO1 120705Z 25002KT M04/M11 A3029 RMK A01 T10371105  RH  059%=      5-min Rain = 0
KHO1 120706Z 25002KT M04/M11 A3029 RMK A01 T10381105  RH  060%=      5-min Rain = 0
KHO1 120707Z 25003KT M04/M11 A3029 RMK A01 T10391105  RH  060%=      5-min Rain = 0
KHO1 120708Z 25003KT M04/M10 A3029 RMK A01 T10391104  RH  060%=      5-min Rain = 0
KHO1 120709Z 25003KT M04/M11 A3029 RMK A01 T10391106  RH  060%=      5-min Rain = 0
KHO1 120710Z 25003KT M04/M11 A3029 RMK A01 T10401108  RH  059%=      5-min Rain = 0
KHO1 120711Z 25003KT M04/M11 A3028 RMK A01 T10401110  RH  058%=      5-min Rain = 0
KHO1 120712Z 25003KT M04/M11 A3028 RMK A01 T10411110  RH  059%=      5-min Rain = 0
KHO1 120713Z 25003KT M04/M11 A3028 RMK A01 T10411111  RH  058%=      5-min Rain = 0
KHO1 120714Z 25003KT M04/M11 A3028 RMK A01 T10411111  RH  058%=      5-min Rain = 0
KHO1 120715Z 25003KT M04/M11 A3028 RMK A01 T10411111  RH  058%=      5-min Rain = 0
KHO1 120716Z 25003KT M04/M11 A3028 RMK A01 T10411112  RH  058%=      5-min Rain = 0
KHO1 120717Z 25003KT M04/M11 A3028 RMK A01 T10421113  RH  058%=      5-min Rain = 0
KHO1 120718Z 25003KT M04/M11 A3028 RMK A01 T10421112  RH  058%=      5-min Rain = 0
KHO1 120719Z 24003KT M04/M11 A3028 RMK A01 T10431112  RH  058%=      5-min Rain = 0
KHO1 120720Z 24003KT M04/M11 A3028 RMK A01 T10431113  RH  058%=      5-min Rain = 0
KHO1 120721Z 23003KT M04/M11 A3028 RMK A01 T10441114  RH  058%=      5-min Rain = 0
KHO1 120722Z 22003KT M04/M11 A3028 RMK A01 T10441114  RH  058%=      5-min Rain = 0
KHO1 120723Z 22003KT M04/M11 A3028 RMK A01 T10441113  RH  059%=      5-min Rain = 0
KHO1 120724Z 22002KT M04/M11 A3028 RMK A01 T10441113  RH  059%=      5-min Rain = 0
KHO1 120725Z 22002KT M04/M11 A3027 RMK A01 T10441113  RH  059%=      5-min Rain = 0
KHO1 120726Z 22002KT M05/M11 A3028 RMK A01 T10451113  RH  059%=      5-min Rain = 0
KHO1 120727Z 22002KT M05/M11 A3027 RMK A01 T10451113  RH  059%=      5-min Rain = 0
KHO1 120728Z 22001KT M05/M11 A3027 RMK A01 T10451114  RH  059%=      5-min Rain = 0
KHO1 120729Z 22002KT M05/M11 A3027 RMK A01 T10451113  RH  059%=      5-min Rain = 0
KHO1 120730Z 22002KT M05/M11 A3027 RMK A01 T10451112  RH  059%=      5-min Rain = 0
KHO1 120731Z 22002KT M05/M11 A3027 RMK A01 T10451111  RH  060%=      5-min Rain = 0
KHO1 120732Z 22002KT M04/M11 A3027 RMK A01 T10441110  RH  060%=      5-min Rain = 0
KHO1 120733Z 22002KT M04/M11 A3027 RMK A01 T10441110  RH  060%=      5-min Rain = 0
KHO1 120734Z 22002KT M04/M11 A3027 RMK A01 T10431111  RH  059%=      5-min Rain = 0
KHO1 120735Z 22002KT M04/M11 A3027 RMK A01 T10431111  RH  059%=      5-min Rain = 0
KHO1 120736Z 22002KT M04/M11 A3027 RMK A01 T10431111  RH  059%=      5-min Rain = 0
KHO1 120737Z 22002KT M04/M11 A3027 RMK A01 T10421110  RH  059%=      5-min Rain = 0
KHO1 120738Z 22003KT M04/M11 A3027 RMK A01 T10421110  RH  059%=      5-min Rain = 0
KHO1 120739Z 21003KT M04/M11 A3027 RMK A01 T10411110  RH  059%=      5-min Rain = 0
KHO1 120740Z 21003KT M04/M11 A3027 RMK A01 T10411109  RH  059%=      5-min Rain = 0
KHO1 120741Z 21002KT M04/M11 A3027 RMK A01 T10401109  RH  059%=      5-min Rain = 0
KHO1 120742Z 21002KT M04/M11 A3027 RMK A01 T10401110  RH  058%=      5-min Rain = 0
KHO1 120743Z 21002KT M04/M11 A3027 RMK A01 T10401110  RH  058%=      5-min Rain = 0
KHO1 120744Z 21002KT M04/M11 A3027 RMK A01 T10411111  RH  058%=      5-min Rain = 0
KHO1 120745Z 21002KT M04/M11 A3027 RMK A01 T10411111  RH  058%=      5-min Rain = 0
KHO1 120746Z 21002KT M04/M11 A3027 RMK A01 T10411111  RH  058%=      5-min Rain = 0
KHO1 120747Z 21002KT M04/M11 A3027 RMK A01 T10411111  RH  059%=      5-min Rain = 0
KHO1 120748Z 21002KT M04/M11 A3027 RMK A01 T10421110  RH  059%=      5-min Rain = 0
KHO1 120749Z 20002KT M04/M11 A3027 RMK A01 T10421109  RH  059%=      5-min Rain = 0
KHO1 120750Z 21002KT M04/M11 A3027 RMK A01 T10421109  RH  060%=      5-min Rain = 0
KHO1 120751Z 21003KT M04/M11 A3027 RMK A01 T10421108  RH  060%=      5-min Rain = 0
KHO1 120752Z 21002KT M04/M11 A3027 RMK A01 T10421108  RH  060%=      5-min Rain = 0
KHO1 120753Z 21002KT M04/M11 A3027 RMK A01 T10421108  RH  060%=      5-min Rain = 0
KHO1 120754Z 21002KT M04/M11 A3027 RMK A01 T10411107  RH  060%=      5-min Rain = 0
KHO1 120755Z 21003KT M04/M11 A3027 RMK A01 T10411106  RH  061%=      5-min Rain = 0
KHO1 120756Z 21003KT M04/M11 A3027 RMK A01 T10401106  RH  060%=      5-min Rain = 0
KHO1 120757Z 21002KT M04/M11 A3027 RMK A01 T10401106  RH  060%=      5-min Rain = 0
KHO1 120758Z 21002KT M04/M11 A3027 RMK A01 T10401105  RH  060%=      5-min Rain = 0
KHO1 120759Z 21002KT M04/M11 A3027 RMK A01 T10391105  RH  060%=      5-min Rain = 0
KHO1 120800Z 22002KT M04/M11 A3027 RMK A01 T10391105  RH  060%=      5-min Rain = 0
KHO1 120801Z 22002KT M04/M11 A3027 RMK A01 T10381106  RH  059%=      5-min Rain = 0
KHO1 120802Z 22002KT M04/M11 A3027 RMK A01 T10381106  RH  059%=      5-min Rain = 0
KHO1 120803Z 21002KT M04/M11 A3027 RMK A01 T10371106  RH  059%=      5-min Rain = 0
KHO1 120804Z 20003KT M04/M11 A3027 RMK A01 T10361105  RH  059%=      5-min Rain = 0
KHO1 120805Z 20002KT M04/M11 A3027 RMK A01 T10361105  RH  059%=      5-min Rain = 0
KHO1 120806Z 20002KT M04/M11 A3027 RMK A01 T10351105  RH  058%=      5-min Rain = 0
KHO1 120807Z 21002KT M04/M11 A3027 RMK A01 T10351105  RH  058%=      5-min Rain = 0
KHO1 120808Z 21002KT M03/M11 A3027 RMK A01 T10341106  RH  058%=      5-min Rain = 0
KHO1 120809Z 21002KT M03/M11 A3027 RMK A01 T10341106  RH  057%=      5-min Rain = 0
KHO1 120810Z 22002KT M03/M11 A3027 RMK A01 T10331106  RH  057%=      5-min Rain = 0
KHO1 120811Z 22002KT M03/M11 A3028 RMK A01 T10331106  RH  057%=      5-min Rain = 0
KHO1 120812Z 22002KT M03/M11 A3028 RMK A01 T10321105  RH  057%=      5-min Rain = 0
KHO1 120813Z 22001KT M03/M10 A3028 RMK A01 T10321104  RH  058%=      5-min Rain = 0
KHO1 120814Z 22001KT M03/M10 A3027 RMK A01 T10311104  RH  057%=      5-min Rain = 0
KHO1 120815Z 22001KT M03/M10 A3028 RMK A01 T10311104  RH  057%=      5-min Rain = 0
KHO1 120816Z 22001KT M03/M10 A3028 RMK A01 T10301104  RH  057%=      5-min Rain = 0
KHO1 120817Z 22001KT M03/M10 A3027 RMK A01 T10301103  RH  057%=      5-min Rain = 0
KHO1 120818Z 22001KT M03/M10 A3028 RMK A01 T10291103  RH  057%=      5-min Rain = 0
KHO1 120819Z 22001KT M03/M10 A3028 RMK A01 T10291103  RH  057%=      5-min Rain = 0
KHO1 120820Z 22002KT M03/M10 A3027 RMK A01 T10281103  RH  057%=      5-min Rain = 0
KHO1 120821Z 22002KT M03/M10 A3027 RMK A01 T10281103  RH  056%=      5-min Rain = 0
KHO1 120822Z 21002KT M03/M10 A3027 RMK A01 T10281103  RH  056%=      5-min Rain = 0
KHO1 120823Z 21002KT M03/M10 A3027 RMK A01 T10271103  RH  056%=      5-min Rain = 0
KHO1 120824Z 21001KT M03/M10 A3027 RMK A01 T10271103  RH  056%=      5-min Rain = 0
KHO1 120825Z 21001KT M03/M11 A3027 RMK A01 T10281107  RH  054%=      5-min Rain = 0
KHO1 120826Z 21001KT M03/M11 A3027 RMK A01 T10291106  RH  055%=      5-min Rain = 0
KHO1 120827Z 21001KT M03/M10 A3028 RMK A01 T10291103  RH  057%=      5-min Rain = 0
KHO1 120828Z 21000KT M03/M10 A3028 RMK A01 T10291102  RH  057%=      5-min Rain = 0
KHO1 120829Z 00000KT M03/M10 A3028 RMK A01 T10291101  RH  058%=      5-min Rain = 0
KHO1 120830Z 00000KT M03/M10 A3028 RMK A01 T10291099  RH  058%=      5-min Rain = 0
KHO1 120831Z 00000KT M03/M10 A3028 RMK A01 T10291098  RH  059%=      5-min Rain = 0
KHO1 120832Z 00000KT M03/M10 A3028 RMK A01 T10291097  RH  060%=      5-min Rain = 0
KHO1 120833Z 00000KT M03/M10 A3028 RMK A01 T10281096  RH  059%=      5-min Rain = 0
KHO1 120834Z 00000KT M03/M10 A3028 RMK A01 T10281095  RH  060%=      5-min Rain = 0
KHO1 120835Z 22000KT M03/M09 A3028 RMK A01 T10271094  RH  060%=      5-min Rain = 0
KHO1 120836Z 21000KT M03/M09 A3028 RMK A01 T10261093  RH  060%=      5-min Rain = 0
KHO1 120837Z 21001KT M03/M09 A3028 RMK A01 T10261093  RH  060%=      5-min Rain = 0
KHO1 120838Z 21001KT M03/M09 A3028 RMK A01 T10261094  RH  059%=      5-min Rain = 0
KHO1 120839Z 22001KT M03/M10 A3028 RMK A01 T10261095  RH  059%=      5-min Rain = 0
KHO1 120840Z 22001KT M03/M10 A3028 RMK A01 T10251095  RH  059%=      5-min Rain = 0
KHO1 120841Z 22001KT M03/M09 A3028 RMK A01 T10251094  RH  059%=      5-min Rain = 0
KHO1 120842Z 21001KT M03/M09 A3028 RMK A01 T10251094  RH  059%=      5-min Rain = 0
KHO1 120843Z 21001KT M03/M09 A3028 RMK A01 T10251094  RH  059%=      5-min Rain = 0
KHO1 120844Z 21000KT M03/M09 A3028 RMK A01 T10251094  RH  059%=      5-min Rain = 0
KHO1 120845Z 21000KT M03/M10 A3028 RMK A01 T10261095  RH  059%=      5-min Rain = 0
KHO1 120846Z 00000KT M03/M10 A3028 RMK A01 T10271095  RH  059%=      5-min Rain = 0
KHO1 120847Z 21001KT M03/M10 A3028 RMK A01 T10271095  RH  059%=      5-min Rain = 0
KHO1 120848Z 22001KT M03/M10 A3028 RMK A01 T10281095  RH  060%=      5-min Rain = 0
KHO1 120849Z 22001KT M03/M10 A3028 RMK A01 T10281096  RH  060%=      5-min Rain = 0
KHO1 120850Z 22001KT M03/M10 A3028 RMK A01 T10291097  RH  059%=      5-min Rain = 0
KHO1 120851Z 22001KT M03/M10 A3028 RMK A01 T10291097  RH  060%=      5-min Rain = 0
KHO1 120852Z 22000KT M03/M10 A3028 RMK A01 T10291095  RH  060%=      5-min Rain = 0
KHO1 120853Z 00000KT M03/M10 A3028 RMK A01 T10291095  RH  060%=      5-min Rain = 0
KHO1 120854Z 00000KT M03/M09 A3028 RMK A01 T10281094  RH  060%=      5-min Rain = 0
KHO1 120855Z 00000KT M03/M10 A3028 RMK A01 T10281096  RH  060%=      5-min Rain = 0
KHO1 120856Z 00000KT M03/M10 A3027 RMK A01 T10291096  RH  060%=      5-min Rain = 0
KHO1 120857Z 00000KT M03/M10 A3027 RMK A01 T10291095  RH  061%=      5-min Rain = 0
KHO1 120858Z 22000KT M03/M09 A3027 RMK A01 T10301093  RH  062%=      5-min Rain = 0
KHO1 120859Z 22000KT M03/M09 A3027 RMK A01 T10301093  RH  062%=      5-min Rain = 0
KHO1 120900Z 22000KT M03/M09 A3027 RMK A01 T10301093  RH  062%=      5-min Rain = 0
KHO1 120901Z 21001KT M03/M09 A3027 RMK A01 T10301093  RH  062%=      5-min Rain = 0
KHO1 120902Z 20001KT M03/M09 A3027 RMK A01 T10301093  RH  062%=      5-min Rain = 0
KHO1 120903Z 19002KT M03/M09 A3027 RMK A01 T10301094  RH  061%=      5-min Rain = 0
KHO1 120904Z 18002KT M03/M10 A3027 RMK A01 T10311098  RH  060%=      5-min Rain = 0
KHO1 120905Z 17003KT M03/M10 A3027 RMK A01 T10331100  RH  060%=      5-min Rain = 0
KHO1 120906Z 17003KT M03/M10 A3027 RMK A01 T10331098  RH  061%=      5-min Rain = 0
KHO1 120907Z 17002KT M03/M10 A3027 RMK A01 T10331098  RH  061%=      5-min Rain = 0
KHO1 120908Z 18002KT M03/M10 A3027 RMK A01 T10341098  RH  061%=      5-min Rain = 0
KHO1 120909Z 18001KT M04/M10 A3027 RMK A01 T10351102  RH  060%=      5-min Rain = 0
KHO1 120910Z 18000KT M04/M10 A3027 RMK A01 T10361104  RH  059%=      5-min Rain = 0
KHO1 120911Z 00000KT M04/M10 A3027 RMK A01 T10381101  RH  061%=      5-min Rain = 0
KHO1 120912Z 00000KT M04/M10 A3027 RMK A01 T10381097  RH  064%=      5-min Rain = 0
KHO1 120913Z 00000KT M04/M10 A3027 RMK A01 T10381095  RH  065%=      5-min Rain = 0
KHO1 120914Z 00000KT M04/M10 A3027 RMK A01 T10371095  RH  064%=      5-min Rain = 0
KHO1 120915Z 18000KT M04/M10 A3027 RMK A01 T10371095  RH  064%=      5-min Rain = 0
KHO1 120916Z 17002KT M04/M09 A3027 RMK A01 T10361094  RH  064%=      5-min Rain = 0
KHO1 120917Z 17003KT M04/M10 A3027 RMK A01 T10361096  RH  063%=      5-min Rain = 0
KHO1 120918Z 17004KT M03/M09 A3027 RMK A01 T10341093  RH  064%=      5-min Rain = 0
KHO1 120919Z 16004KT M03/M10 A3027 RMK A01 T10341095  RH  063%=      5-min Rain = 0
KHO1 120920Z 17004KT M04/M10 A3027 RMK A01 T10351097  RH  062%=      5-min Rain = 0
KHO1 120921Z 17004KT M04/M10 A3027 RMK A01 T10361098  RH  062%=      5-min Rain = 0
KHO1 120922Z 17004KT M04/M10 A3027 RMK A01 T10361098  RH  062%=      5-min Rain = 0
KHO1 120923Z 17003KT M04/M10 A3027 RMK A01 T10361099  RH  062%=      5-min Rain = 0
KHO1 120924Z 17003KT M04/M10 A3027 RMK A01 T10371101  RH  061%=      5-min Rain = 0
KHO1 120925Z 18003KT M04/M10 A3027 RMK A01 T10371100  RH  062%=      5-min Rain = 0
KHO1 120926Z 18003KT M04/M10 A3027 RMK A01 T10381097  RH  063%=      5-min Rain = 0
KHO1 120927Z 18003KT M04/M09 A3027 RMK A01 T10371094  RH  065%=      5-min Rain = 0
KHO1 120928Z 18003KT M04/M09 A3027 RMK A01 T10371092  RH  065%=      5-min Rain = 0
KHO1 120929Z 18002KT M04/M09 A3027 RMK A01 T10361092  RH  065%=      5-min Rain = 0
KHO1 120930Z 18002KT M04/M09 A3027 RMK A01 T10361093  RH  065%=      5-min Rain = 0
KHO1 120931Z 18002KT M04/M09 A3027 RMK A01 T10361094  RH  064%=      5-min Rain = 0
KHO1 120932Z 18003KT M04/M09 A3027 RMK A01 T10361094  RH  064%=      5-min Rain = 0
KHO1 120933Z 18003KT M04/M09 A3027 RMK A01 T10361094  RH  064%=      5-min Rain = 0
KHO1 120934Z 18003KT M04/M09 A3026 RMK A01 T10361094  RH  064%=      5-min Rain = 0
KHO1 120935Z 18004KT M04/M09 A3026 RMK A01 T10361094  RH  064%=      5-min Rain = 0
KHO1 120936Z 18004KT M04/M10 A3026 RMK A01 T10361095  RH  063%=      5-min Rain = 0
KHO1 120937Z 18003KT M04/M10 A3026 RMK A01 T10351096  RH  063%=      5-min Rain = 0
KHO1 120938Z 18003KT M04/M10 A3026 RMK A01 T10351098  RH  062%=      5-min Rain = 0
KHO1 120939Z 18003KT M03/M10 A3026 RMK A01 T10341099  RH  061%=      5-min Rain = 0
KHO1 120940Z 18003KT M03/M10 A3026 RMK A01 T10341099  RH  061%=      5-min Rain = 0
KHO1 120941Z 18004KT M03/M10 A3026 RMK A01 T10331099  RH  060%=      5-min Rain = 0
KHO1 120942Z 18004KT M03/M10 A3026 RMK A01 T10321100  RH  059%=      5-min Rain = 0
KHO1 120943Z 18005KT M03/M10 A3026 RMK A01 T10321102  RH  059%=      5-min Rain = 0
KHO1 120944Z 18006KT M03/M10 A3026 RMK A01 T10311103  RH  058%=      5-min Rain = 0
KHO1 120945Z 18006KT M03/M10 A3026 RMK A01 T10301103  RH  057%=      5-min Rain = 0
KHO1 120946Z 18006KT M03/M10 A3026 RMK A01 T10291104  RH  057%=      5-min Rain = 0
KHO1 120947Z 18007KT M03/M11 A3026 RMK A01 T10291105  RH  056%=      5-min Rain = 0
KHO1 120948Z 18007KT M03/M11 A3026 RMK A01 T10291107  RH  055%=      5-min Rain = 0
KHO1 120949Z 18007KT M03/M11 A3026 RMK A01 T10301107  RH  055%=      5-min Rain = 0
KHO1 120950Z 18007KT M03/M11 A3025 RMK A01 T10301107  RH  055%=      5-min Rain = 0
KHO1 120951Z 18006KT M03/M11 A3025 RMK A01 T10291107  RH  055%=      5-min Rain = 0
KHO1 120952Z 18007KT M03/M11 A3025 RMK A01 T10291107  RH  055%=      5-min Rain = 0
KHO1 120953Z 18007KT M03/M11 A3025 RMK A01 T10281107  RH  055%=      5-min Rain = 0
KHO1 120954Z 18006KT M03/M11 A3025 RMK A01 T10271106  RH  054%=      5-min Rain = 0
KHO1 120955Z 18007KT M03/M11 A3025 RMK A01 T10261106  RH  054%=      5-min Rain = 0
KHO1 120956Z 18007KT M03/M11 A3025 RMK A01 T10251106  RH  054%=      5-min Rain = 0
KHO1 120957Z 18007KT M03/M11 A3025 RMK A01 T10251106  RH  054%=      5-min Rain = 0
KHO1 120958Z 18007KT M03/M11 A3025 RMK A01 T10251107  RH  054%=      5-min Rain = 0
KHO1 120959Z 18006KT M03/M11 A3025 RMK A01 T10261107  RH  054%=      5-min Rain = 0
KHO1 121000Z 18007KT M03/M11 A3025 RMK A01 T10261107  RH  054%=      5-min Rain = 0
KHO1 121001Z 18007KT M03/M11 A3025 RMK A01 T10261107  RH  054%=      5-min Rain = 0
KHO1 121002Z 18007KT M03/M11 A3025 RMK A01 T10261107  RH  054%=      5-min Rain = 0
KHO1 121003Z 18007KT M03/M11 A3025 RMK A01 T10271107  RH  054%=      5-min Rain = 0
KHO1 121004Z 19007KT M03/M11 A3025 RMK A01 T10271107  RH  054%=      5-min Rain = 0
KHO1 121005Z 18007KT M03/M11 A3024 RMK A01 T10271108  RH  054%=      5-min Rain = 0
KHO1 121006Z 19007KT M03/M11 A3024 RMK A01 T10281108  RH  054%=      5-min Rain = 0
KHO1 121007Z 19007KT M03/M11 A3024 RMK A01 T10291109  RH  054%=      5-min Rain = 0
KHO1 121008Z 18007KT M03/M11 A3024 RMK A01 T10301109  RH  054%=      5-min Rain = 0
KHO1 121009Z 18007KT M03/M11 A3024 RMK A01 T10301109  RH  054%=      5-min Rain = 0
KHO1 121010Z 18007KT M03/M11 A3024 RMK A01 T10311109  RH  055%=      5-min Rain = 0
KHO1 121011Z 18007KT M03/M11 A3024 RMK A01 T10311109  RH  055%=      5-min Rain = 0
KHO1 121012Z 18007KT M03/M11 A3024 RMK A01 T10301108  RH  055%=      5-min Rain = 0
KHO1 121013Z 18006KT M03/M11 A3024 RMK A01 T10291108  RH  055%=      5-min Rain = 0
KHO1 121014Z 18006KT M03/M11 A3024 RMK A01 T10291107  RH  055%=      5-min Rain = 0
KHO1 121015Z 18007KT M03/M11 A3024 RMK A01 T10271107  RH  054%=      5-min Rain = 0
KHO1 121016Z 18007KT M03/M11 A3024 RMK A01 T10271107  RH  054%=      5-min Rain = 0
KHO1 121017Z 18006KT M03/M11 A3024 RMK A01 T10261107  RH  054%=      5-min Rain = 0
KHO1 121018Z 18006KT M03/M11 A3024 RMK A01 T10261107  RH  054%=      5-min Rain = 0
KHO1 121019Z 18006KT M03/M11 A3024 RMK A01 T10251107  RH  054%=      5-min Rain = 0
KHO1 121020Z 18006KT M03/M11 A3024 RMK A01 T10251107  RH  053%=      5-min Rain = 0
KHO1 121021Z 18005KT M02/M11 A3024 RMK A01 T10241107  RH  053%=      5-min Rain = 0
KHO1 121022Z 18005KT M02/M11 A3024 RMK A01 T10241107  RH  053%=      5-min Rain = 0
KHO1 121023Z 18005KT M02/M11 A3024 RMK A01 T10241107  RH  053%=      5-min Rain = 0
KHO1 121024Z 18005KT M02/M11 A3024 RMK A01 T10231107  RH  053%=      5-min Rain = 0
KHO1 121025Z 18005KT M02/M11 A3024 RMK A01 T10221107  RH  052%=      5-min Rain = 0
KHO1 121026Z 18005KT M02/M11 A3024 RMK A01 T10211106  RH  052%=      5-min Rain = 0
KHO1 121027Z 17005KT M02/M11 A3024 RMK A01 T10201107  RH  052%=      5-min Rain = 0
KHO1 121028Z 17004KT M02/M11 A3024 RMK A01 T10211108  RH  051%=      5-min Rain = 0
KHO1 121029Z 17004KT M02/M11 A3024 RMK A01 T10221109  RH  051%=      5-min Rain = 0
KHO1 121030Z 16004KT M02/M11 A3024 RMK A01 T10231110  RH  052%=      5-min Rain = 0
KHO1 121031Z 17004KT M03/M11 A3024 RMK A01 T10251110  RH  052%=      5-min Rain = 0
KHO1 121032Z 17004KT M03/M11 A3024 RMK A01 T10251110  RH  052%=      5-min Rain = 0
KHO1 121033Z 17005KT M03/M11 A3024 RMK A01 T10261110  RH  052%=      5-min Rain = 0
KHO1 121034Z 17005KT M03/M11 A3024 RMK A01 T10271110  RH  053%=      5-min Rain = 0
KHO1 121035Z 17005KT M03/M11 A3024 RMK A01 T10281110  RH  053%=      5-min Rain = 0
KHO1 121036Z 17006KT M03/M11 A3024 RMK A01 T10281110  RH  053%=      5-min Rain = 0
KHO1 121037Z 18006KT M03/M11 A3024 RMK A01 T10271108  RH  054%=      5-min Rain = 0
KHO1 121038Z 17006KT M03/M11 A3024 RMK A01 T10261108  RH  053%=      5-min Rain = 0
KHO1 121039Z 17006KT M03/M11 A3024 RMK A01 T10251107  RH  053%=      5-min Rain = 0
KHO1 121040Z 17006KT M02/M11 A3024 RMK A01 T10241107  RH  053%=      5-min Rain = 0
KHO1 121041Z 17006KT M02/M11 A3024 RMK A01 T10221107  RH  052%=      5-min Rain = 0
KHO1 121042Z 17006KT M02/M11 A3024 RMK A01 T10221108  RH  052%=      5-min Rain = 0
KHO1 121043Z 17006KT M02/M11 A3024 RMK A01 T10231109  RH  052%=      5-min Rain = 0
KHO1 121044Z 17006KT M03/M11 A3024 RMK A01 T10251109  RH  052%=      5-min Rain = 0
KHO1 121045Z 16005KT M03/M11 A3024 RMK A01 T10261110  RH  053%=      5-min Rain = 0
KHO1 121046Z 16005KT M03/M11 A3024 RMK A01 T10271111  RH  053%=      5-min Rain = 0
KHO1 121047Z 16005KT M03/M11 A3024 RMK A01 T10291111  RH  053%=      5-min Rain = 0
KHO1 121048Z 16005KT M03/M11 A3024 RMK A01 T10301111  RH  054%=      5-min Rain = 0
KHO1 121049Z 16005KT M03/M11 A3024 RMK A01 T10301110  RH  054%=      5-min Rain = 0
KHO1 121050Z 17005KT M03/M11 A3024 RMK A01 T10301109  RH  054%=      5-min Rain = 0
KHO1 121051Z 17005KT M03/M11 A3024 RMK A01 T10281109  RH  054%=      5-min Rain = 0
KHO1 121052Z 17005KT M03/M11 A3024 RMK A01 T10271108  RH  054%=      5-min Rain = 0
KHO1 121053Z 17005KT M03/M11 A3024 RMK A01 T10261108  RH  054%=      5-min Rain = 0
KHO1 121054Z 17005KT M03/M11 A3024 RMK A01 T10261108  RH  053%=      5-min Rain = 0
KHO1 121055Z 17005KT M03/M11 A3024 RMK A01 T10261108  RH  053%=      5-min Rain = 0
KHO1 121056Z 17005KT M03/M11 A3024 RMK A01 T10261108  RH  053%=      5-min Rain = 0
KHO1 121057Z 17005KT M03/M11 A3024 RMK A01 T10271109  RH  053%=      5-min Rain = 0
KHO1 121058Z 17006KT M03/M11 A3024 RMK A01 T10281110  RH  053%=      5-min Rain = 0
KHO1 121059Z 17007KT M03/M11 A3023 RMK A01 T10271108  RH  054%=      5-min Rain = 0
KHO1 121100Z 17007KT M03/M11 A3023 RMK A01 T10271108  RH  054%=      5-min Rain = 0
KHO1 121101Z 17008KT M03/M11 A3023 RMK A01 T10261108  RH  053%=      5-min Rain = 0
KHO1 121102Z 17008KT M03/M11 A3023 RMK A01 T10251107  RH  053%=      5-min Rain = 0
KHO1 121103Z 17007KT M02/M11 A3023 RMK A01 T10231108  RH  052%=      5-min Rain = 0
KHO1 121104Z 17007KT M02/M11 A3023 RMK A01 T10231108  RH  052%=      5-min Rain = 0
KHO1 121105Z 17006KT M02/M11 A3023 RMK A01 T10231109  RH  052%=      5-min Rain = 0
KHO1 121106Z 17006KT M02/M11 A3023 RMK A01 T10231109  RH  052%=      5-min Rain = 0
KHO1 121107Z 17005KT M02/M11 A3023 RMK A01 T10231109  RH  052%=      5-min Rain = 0
KHO1 121108Z 17005KT M02/M11 A3023 RMK A01 T10241109  RH  052%=      5-min Rain = 0
KHO1 121109Z 17006KT M02/M11 A3023 RMK A01 T10241109  RH  052%=      5-min Rain = 0
KHO1 121110Z 17006KT M02/M11 A3023 RMK A01 T10241109  RH  052%=      5-min Rain = 0
KHO1 121111Z 17006KT M02/M11 A3023 RMK A01 T10241109  RH  052%=      5-min Rain = 0
KHO1 121112Z 17007KT M02/M11 A3023 RMK A01 T10241109  RH  052%=      5-min Rain = 0
KHO1 121113Z 18007KT M02/M11 A3023 RMK A01 T10231109  RH  052%=      5-min Rain = 0
KHO1 121114Z 17006KT M02/M11 A3023 RMK A01 T10241110  RH  052%=      5-min Rain = 0
KHO1 121115Z 17006KT M03/M11 A3023 RMK A01 T10251110  RH  052%=      5-min Rain = 0
KHO1 121116Z 17006KT M03/M11 A3023 RMK A01 T10251109  RH  052%=      5-min Rain = 0
KHO1 121117Z 17005KT M03/M11 A3023 RMK A01 T10251109  RH  052%=      5-min Rain = 0
KHO1 121118Z 17006KT M03/M11 A3023 RMK A01 T10251109  RH  053%=      5-min Rain = 0
KHO1 121119Z 17006KT M02/M11 A3023 RMK A01 T10241109  RH  052%=      5-min Rain = 0
KHO1 121120Z 17005KT M02/M11 A3023 RMK A01 T10241109  RH  052%=      5-min Rain = 0
KHO1 121121Z 17006KT M02/M11 A3023 RMK A01 T10241109  RH  052%=      5-min Rain = 0
KHO1 121122Z 17006KT M02/M11 A3023 RMK A01 T10241109  RH  052%=      5-min Rain = 0
KHO1 121123Z 17005KT M03/M11 A3023 RMK A01 T10251109  RH  052%=      5-min Rain = 0
KHO1 121124Z 17005KT M03/M11 A3023 RMK A01 T10251109  RH  052%=      5-min Rain = 0
KHO1 121125Z 17005KT M03/M11 A3023 RMK A01 T10251109  RH  052%=      5-min Rain = 0
KHO1 121126Z 17005KT M03/M11 A3023 RMK A01 T10251109  RH  052%=      5-min Rain = 0
KHO1 121127Z 17005KT M03/M11 A3023 RMK A01 T10251109  RH  052%=      5-min Rain = 0
KHO1 121128Z 17005KT M03/M11 A3023 RMK A01 T10261110  RH  052%=      5-min Rain = 0
KHO1 121129Z 17004KT M03/M11 A3023 RMK A01 T10261110  RH  053%=      5-min Rain = 0
KHO1 121130Z 17005KT M03/M11 A3023 RMK A01 T10261110  RH  053%=      5-min Rain = 0
KHO1 121131Z 17005KT M03/M11 A3023 RMK A01 T10271110  RH  053%=      5-min Rain = 0
KHO1 121132Z 17005KT M03/M11 A3023 RMK A01 T10271109  RH  053%=      5-min Rain = 0
KHO1 121133Z 17005KT M03/M11 A3023 RMK A01 T10271109  RH  053%=      5-min Rain = 0
KHO1 121134Z 17005KT M03/M11 A3023 RMK A01 T10261109  RH  053%=      5-min Rain = 0
KHO1 121135Z 17005KT M03/M11 A3023 RMK A01 T10261109  RH  053%=      5-min Rain = 0
KHO1 121136Z 17005KT M03/M11 A3023 RMK A01 T10271109  RH  053%=      5-min Rain = 0
KHO1 121137Z 17005KT M03/M11 A3023 RMK A01 T10271109  RH  053%=      5-min Rain = 0
KHO1 121138Z 17005KT M03/M11 A3023 RMK A01 T10261109  RH  053%=      5-min Rain = 0
KHO1 121139Z 17005KT M03/M11 A3023 RMK A01 T10271109  RH  053%=      5-min Rain = 0
KHO1 121140Z 17005KT M03/M11 A3023 RMK A01 T10261109  RH  053%=      5-min Rain = 0
KHO1 121141Z 17005KT M03/M11 A3023 RMK A01 T10261109  RH  053%=      5-min Rain = 0
KHO1 121142Z 17004KT M03/M11 A3023 RMK A01 T10271109  RH  053%=      5-min Rain = 0
KHO1 121143Z 17004KT M03/M11 A3023 RMK A01 T10271110  RH  053%=      5-min Rain = 0
KHO1 121144Z 17004KT M03/M11 A3023 RMK A01 T10281110  RH  053%=      5-min Rain = 0
KHO1 121145Z 17005KT M03/M11 A3023 RMK A01 T10281109  RH  053%=      5-min Rain = 0
KHO1 121146Z 17005KT M03/M11 A3023 RMK A01 T10281109  RH  053%=      5-min Rain = 0
KHO1 121147Z 17005KT M03/M11 A3023 RMK A01 T10281110  RH  053%=      5-min Rain = 0
KHO1 121148Z 17005KT M03/M11 A3023 RMK A01 T10281109  RH  054%=      5-min Rain = 0
KHO1 121149Z 17006KT M03/M11 A3023 RMK A01 T10281109  RH  053%=      5-min Rain = 0
KHO1 121150Z 17006KT M03/M11 A3023 RMK A01 T10281109  RH  054%=      5-min Rain = 0
KHO1 121151Z 17006KT M03/M11 A3023 RMK A01 T10281109  RH  054%=      5-min Rain = 0
KHO1 121152Z 17006KT M03/M11 A3023 RMK A01 T10281109  RH  053%=      5-min Rain = 0
KHO1 121153Z 17006KT M03/M11 A3023 RMK A01 T10281110  RH  053%=      5-min Rain = 0
KHO1 121154Z 17006KT M03/M11 A3023 RMK A01 T10291110  RH  054%=      5-min Rain = 0
KHO1 121155Z 17006KT M03/M11 A3023 RMK A01 T10301109  RH  054%=      5-min Rain = 0
KHO1 121156Z 17006KT M03/M11 A3023 RMK A01 T10291108  RH  054%=      5-min Rain = 0
KHO1 121157Z 17006KT M03/M11 A3023 RMK A01 T10281109  RH  054%=      5-min Rain = 0
KHO1 121158Z 17006KT M03/M11 A3023 RMK A01 T10281109  RH  054%=      5-min Rain = 0
KHO1 121159Z 17006KT M03/M11 A3023 RMK A01 T10281109  RH  054%=      5-min Rain = 0
KHO1 121200Z 17006KT M03/M11 A3023 RMK A01 T10281109  RH  054%=      5-min Rain = 0
KHO1 121201Z 17006KT M03/M11 A3023 RMK A01 T10281108  RH  054%=      5-min Rain = 0
KHO1 121202Z 17006KT M03/M11 A3023 RMK A01 T10271108  RH  054%=      5-min Rain = 0
KHO1 121203Z 17006KT M03/M11 A3023 RMK A01 T10271108  RH  053%=      5-min Rain = 0
KHO1 121204Z 17006KT M03/M11 A3023 RMK A01 T10271109  RH  053%=      5-min Rain = 0
KHO1 121205Z 17005KT M03/M11 A3023 RMK A01 T10271109  RH  053%=      5-min Rain = 0
KHO1 121206Z 17006KT M03/M11 A3023 RMK A01 T10271109  RH  053%=      5-min Rain = 0
KHO1 121207Z 17006KT M03/M11 A3023 RMK A01 T10271109  RH  053%=      5-min Rain = 0
KHO1 121208Z 17006KT M03/M11 A3023 RMK A01 T10281109  RH  053%=      5-min Rain = 0
KHO1 121209Z 17006KT M03/M11 A3023 RMK A01 T10281110  RH  054%=      5-min Rain = 0
KHO1 121210Z 17006KT M03/M11 A3023 RMK A01 T10291110  RH  054%=      5-min Rain = 0
KHO1 121211Z 17006KT M03/M11 A3023 RMK A01 T10301110  RH  054%=      5-min Rain = 0
KHO1 121212Z 17006KT M03/M11 A3023 RMK A01 T10301109  RH  054%=      5-min Rain = 0
KHO1 121213Z 17006KT M03/M11 A3023 RMK A01 T10301109  RH  054%=      5-min Rain = 0
KHO1 121214Z 17006KT M03/M11 A3023 RMK A01 T10291108  RH  055%=      5-min Rain = 0
KHO1 121215Z 17006KT M03/M11 A3022 RMK A01 T10281108  RH  054%=      5-min Rain = 0
KHO1 121216Z 17006KT M03/M11 A3022 RMK A01 T10281108  RH  054%=      5-min Rain = 0
KHO1 121217Z 17006KT M03/M11 A3022 RMK A01 T10281108  RH  054%=      5-min Rain = 0
KHO1 121218Z 17006KT M03/M11 A3022 RMK A01 T10281108  RH  054%=      5-min Rain = 0
KHO1 121219Z 17006KT M03/M11 A3022 RMK A01 T10271108  RH  054%=      5-min Rain = 0
KHO1 121220Z 17006KT M03/M11 A3022 RMK A01 T10261108  RH  054%=      5-min Rain = 0
KHO1 121221Z 17005KT M03/M11 A3022 RMK A01 T10271108  RH  053%=      5-min Rain = 0
KHO1 121222Z 17005KT M03/M11 A3022 RMK A01 T10271108  RH  054%=      5-min Rain = 0
KHO1 121223Z 17005KT M03/M11 A3022 RMK A01 T10271108  RH  054%=      5-min Rain = 0
KHO1 121224Z 17006KT M03/M11 A3022 RMK A01 T10281108  RH  054%=      5-min Rain = 0
KHO1 121225Z 17006KT M03/M11 A3022 RMK A01 T10281108  RH  054%=      5-min Rain = 0
KHO1 121226Z 17006KT M03/M11 A3022 RMK A01 T10281108  RH  054%=      5-min Rain = 0
KHO1 121227Z 17006KT M03/M11 A3022 RMK A01 T10281108  RH  054%=      5-min Rain = 0
KHO1 121228Z 17006KT M03/M11 A3022 RMK A01 T10271108  RH  054%=      5-min Rain = 0
KHO1 121229Z 17005KT M03/M11 A3022 RMK A01 T10271108  RH  054%=      5-min Rain = 0
KHO1 121230Z 17005KT M03/M11 A3022 RMK A01 T10271108  RH  054%=      5-min Rain = 0
KHO1 121231Z 17005KT M03/M11 A3022 RMK A01 T10271108  RH  054%=      5-min Rain = 0
KHO1 121232Z 17005KT M03/M11 A3022 RMK A01 T10271108  RH  054%=      5-min Rain = 0
KHO1 121233Z 17005KT M03/M11 A3022 RMK A01 T10271108  RH  054%=      5-min Rain = 0
KHO1 121234Z 17005KT M03/M11 A3022 RMK A01 T10271108  RH  054%=      5-min Rain = 0
KHO1 121235Z 17005KT M03/M11 A3022 RMK A01 T10271108  RH  054%=      5-min Rain = 0
KHO1 121236Z 17005KT M03/M11 A3022 RMK A01 T10261107  RH  054%=      5-min Rain = 0
KHO1 121237Z 17005KT M03/M11 A3022 RMK A01 T10261108  RH  054%=      5-min Rain = 0
KHO1 121238Z 17005KT M03/M11 A3022 RMK A01 T10271108  RH  053%=      5-min Rain = 0
KHO1 121239Z 17006KT M03/M11 A3022 RMK A01 T10271109  RH  053%=      5-min Rain = 0
KHO1 121240Z 17005KT M03/M11 A3022 RMK A01 T10281109  RH  054%=      5-min Rain = 0
KHO1 121241Z 18005KT M03/M11 A3023 RMK A01 T10281109  RH  054%=      5-min Rain = 0
KHO1 121242Z 18005KT M03/M11 A3023 RMK A01 T10291109  RH  054%=      5-min Rain = 0
KHO1 121243Z 18005KT M03/M11 A3023 RMK A01 T10291109  RH  054%=      5-min Rain = 0
KHO1 121244Z 18004KT M03/M11 A3023 RMK A01 T10301109  RH  054%=      5-min Rain = 0
KHO1 121245Z 18004KT M03/M11 A3023 RMK A01 T10301110  RH  054%=      5-min Rain = 0
KHO1 121246Z 18004KT M03/M11 A3023 RMK A01 T10311110  RH  054%=      5-min Rain = 0
KHO1 121247Z 18004KT M03/M11 A3023 RMK A01 T10311110  RH  055%=      5-min Rain = 0
KHO1 121248Z 18004KT M03/M11 A3023 RMK A01 T10311109  RH  055%=      5-min Rain = 0
KHO1 121249Z 18004KT M03/M11 A3023 RMK A01 T10311110  RH  055%=      5-min Rain = 0
KHO1 121250Z 18004KT M03/M11 A3023 RMK A01 T10321109  RH  055%=      5-min Rain = 0
KHO1 121251Z 18004KT M03/M11 A3023 RMK A01 T10321109  RH  055%=      5-min Rain = 0
KHO1 121252Z 18004KT M03/M11 A3023 RMK A01 T10321109  RH  055%=      5-min Rain = 0
KHO1 121253Z 18004KT M03/M11 A3023 RMK A01 T10321109  RH  055%=      5-min Rain = 0
KHO1 121254Z 18004KT M03/M11 A3023 RMK A01 T10321110  RH  055%=      5-min Rain = 0
KHO1 121255Z 18005KT M03/M11 A3023 RMK A01 T10331110  RH  055%=      5-min Rain = 0
KHO1 121256Z 18005KT M03/M11 A3023 RMK A01 T10341111  RH  055%=      5-min Rain = 0
KHO1 121257Z 18005KT M03/M11 A3023 RMK A01 T10341110  RH  056%=      5-min Rain = 0
KHO1 121258Z 18005KT M04/M11 A3023 RMK A01 T10351110  RH  056%=      5-min Rain = 0
KHO1 121259Z 19005KT M04/M11 A3023 RMK A01 T10351110  RH  056%=      5-min Rain = 0
KHO1 121300Z 19005KT M04/M11 A3024 RMK A01 T10351109  RH  056%=      5-min Rain = 0
KHO1 121301Z 18005KT M04/M11 A3024 RMK A01 T10351109  RH  056%=      5-min Rain = 0
KHO1 121302Z 19004KT M03/M11 A3024 RMK A01 T10341109  RH  056%=      5-min Rain = 0
KHO1 121303Z 19004KT M04/M11 A3024 RMK A01 T10351110  RH  056%=      5-min Rain = 0
KHO1 121304Z 19004KT M04/M11 A3024 RMK A01 T10351110  RH  056%=      5-min Rain = 0
KHO1 121305Z 19004KT M04/M11 A3024 RMK A01 T10351110  RH  056%=      5-min Rain = 0
KHO1 121306Z 19004KT M04/M11 A3024 RMK A01 T10351110  RH  056%=      5-min Rain = 0
KHO1 121307Z 19003KT M03/M11 A3024 RMK A01 T10341109  RH  056%=      5-min Rain = 0
KHO1 121308Z 19003KT M03/M11 A3024 RMK A01 T10341109  RH  056%=      5-min Rain = 0
KHO1 121309Z 19003KT M03/M11 A3024 RMK A01 T10341110  RH  056%=      5-min Rain = 0
KHO1 121310Z 19003KT M04/M11 A3024 RMK A01 T10351109  RH  056%=      5-min Rain = 0
KHO1 121311Z 19003KT M03/M11 A3025 RMK A01 T10341109  RH  056%=      5-min Rain = 0
KHO1 121312Z 19002KT M03/M11 A3025 RMK A01 T10341109  RH  056%=      5-min Rain = 0
KHO1 121313Z 18002KT M03/M11 A3025 RMK A01 T10341110  RH  056%=      5-min Rain = 0
KHO1 121314Z 18002KT M03/M11 A3025 RMK A01 T10341110  RH  056%=      5-min Rain = 0
KHO1 121315Z 18002KT M04/M11 A3025 RMK A01 T10351110  RH  056%=      5-min Rain = 0
KHO1 121316Z 18002KT M04/M11 A3025 RMK A01 T10361110  RH  056%=      5-min Rain = 0
KHO1 121317Z 18001KT M04/M11 A3025 RMK A01 T10361110  RH  057%=      5-min Rain = 0
KHO1 121318Z 18001KT M04/M11 A3025 RMK A01 T10361110  RH  057%=      5-min Rain = 0
KHO1 121319Z 18001KT M04/M11 A3025 RMK A01 T10361109  RH  057%=      5-min Rain = 0
KHO1 121320Z 18001KT M04/M11 A3025 RMK A01 T10361109  RH  057%=      5-min Rain = 0
KHO1 121321Z 18001KT M04/M11 A3025 RMK A01 T10361109  RH  057%=      5-min Rain = 0
KHO1 121322Z 18001KT M04/M11 A3025 RMK A01 T10351109  RH  057%=      5-min Rain = 0
KHO1 121323Z 18001KT M04/M11 A3025 RMK A01 T10351109  RH  057%=      5-min Rain = 0
KHO1 121324Z 18001KT M03/M11 A3025 RMK A01 T10341108  RH  057%=      5-min Rain = 0
KHO1 121325Z 18001KT M03/M11 A3025 RMK A01 T10341108  RH  056%=      5-min Rain = 0
KHO1 121326Z 18001KT M03/M11 A3025 RMK A01 T10331108  RH  056%=      5-min Rain = 0
KHO1 121327Z 18001KT M03/M11 A3025 RMK A01 T10321108  RH  056%=      5-min Rain = 0
KHO1 121328Z 19001KT M03/M11 A3025 RMK A01 T10321108  RH  056%=      5-min Rain = 0
KHO1 121329Z 19001KT M03/M11 A3025 RMK A01 T10311108  RH  056%=      5-min Rain = 0
KHO1 121330Z 19001KT M03/M11 A3025 RMK A01 T10301107  RH  055%=      5-min Rain = 0
KHO1 121331Z 19002KT M03/M11 A3025 RMK A01 T10301107  RH  055%=      5-min Rain = 0
KHO1 121332Z 19002KT M03/M11 A3025 RMK A01 T10291107  RH  055%=      5-min Rain = 0
KHO1 121333Z 19003KT M03/M11 A3025 RMK A01 T10281107  RH  055%=      5-min Rain = 0
KHO1 121334Z 19003KT M03/M11 A3025 RMK A01 T10281107  RH  054%=      5-min Rain = 0
KHO1 121335Z 18003KT M03/M11 A3025 RMK A01 T10271107  RH  054%=      5-min Rain = 0
KHO1 121336Z 18003KT M03/M11 A3025 RMK A01 T10271108  RH  054%=      5-min Rain = 0
KHO1 121337Z 17004KT M03/M11 A3025 RMK A01 T10281110  RH  053%=      5-min Rain = 0
KHO1 121338Z 17004KT M03/M11 A3025 RMK A01 T10301111  RH  054%=      5-min Rain = 0
KHO1 121339Z 17005KT M03/M11 A3025 RMK A01 T10311110  RH  054%=      5-min Rain = 0
KHO1 121340Z 18005KT M03/M11 A3025 RMK A01 T10311110  RH  054%=      5-min Rain = 0
KHO1 121341Z 17005KT M03/M11 A3025 RMK A01 T10321112  RH  054%=      5-min Rain = 0
KHO1 121342Z 18004KT M04/M11 A3025 RMK A01 T10351113  RH  055%=      5-min Rain = 0
KHO1 121343Z 18005KT M04/M11 A3025 RMK A01 T10351111  RH  056%=      5-min Rain = 0
KHO1 121344Z 18005KT M04/M11 A3025 RMK A01 T10361111  RH  056%=      5-min Rain = 0
KHO1 121345Z 18005KT M04/M11 A3025 RMK A01 T10371112  RH  056%=      5-min Rain = 0
KHO1 121346Z 17005KT M04/M11 A3025 RMK A01 T10371111  RH  056%=      5-min Rain = 0
KHO1 121347Z 17006KT M04/M11 A3025 RMK A01 T10361111  RH  056%=      5-min Rain = 0
KHO1 121348Z 17006KT M04/M11 A3025 RMK A01 T10361111  RH  056%=      5-min Rain = 0
KHO1 121349Z 17006KT M04/M11 A3025 RMK A01 T10351110  RH  056%=      5-min Rain = 0
KHO1 121350Z 17006KT M03/M11 A3025 RMK A01 T10331108  RH  056%=      5-min Rain = 0
KHO1 121351Z 17006KT M03/M11 A3025 RMK A01 T10321108  RH  056%=      5-min Rain = 0
KHO1 121352Z 17006KT M03/M11 A3025 RMK A01 T10301108  RH  055%=      5-min Rain = 0
KHO1 121353Z 17006KT M03/M11 A3025 RMK A01 T10301108  RH  055%=      5-min Rain = 0
KHO1 121354Z 17006KT M03/M11 A3025 RMK A01 T10291109  RH  054%=      5-min Rain = 0
KHO1 121355Z 17006KT M03/M11 A3025 RMK A01 T10291109  RH  054%=      5-min Rain = 0
KHO1 121356Z 17006KT M03/M11 A3026 RMK A01 T10291109  RH  054%=      5-min Rain = 0
KHO1 121357Z 17005KT M03/M11 A3025 RMK A01 T10291109  RH  054%=      5-min Rain = 0
KHO1 121358Z 17005KT M03/M11 A3026 RMK A01 T10291109  RH  054%=      5-min Rain = 0
KHO1 121359Z 17005KT M03/M11 A3025 RMK A01 T10291110  RH  054%=      5-min Rain = 0
KHO1 121400Z 17005KT M03/M11 A3025 RMK A01 T10291110  RH  054%=      5-min Rain = 0
KHO1 121401Z 17005KT M03/M11 A3025 RMK A01 T10291110  RH  054%=      5-min Rain = 0
KHO1 121402Z 17005KT M03/M11 A3025 RMK A01 T10291110  RH  054%=      5-min Rain = 0
KHO1 121403Z 17005KT M03/M11 A3025 RMK A01 T10291110  RH  054%=      5-min Rain = 0
KHO1 121404Z 17005KT M03/M11 A3025 RMK A01 T10281110  RH  054%=      5-min Rain = 0
KHO1 121405Z 17005KT M03/M11 A3025 RMK A01 T10281109  RH  054%=      5-min Rain = 0
KHO1 121406Z 17004KT M03/M11 A3025 RMK A01 T10281110  RH  053%=      5-min Rain = 0
KHO1 121407Z 18005KT M03/M11 A3025 RMK A01 T10281110  RH  053%=      5-min Rain = 0
KHO1 121408Z 18005KT M03/M11 A3026 RMK A01 T10281110  RH  053%=      5-min Rain = 0
KHO1 121409Z 18005KT M03/M11 A3025 RMK A01 T10291111  RH  053%=      5-min Rain = 0
KHO1 121410Z 19005KT M03/M11 A3025 RMK A01 T10301111  RH  054%=      5-min Rain = 0
KHO1 121411Z 19006KT M03/M11 A3025 RMK A01 T10311111  RH  054%=      5-min Rain = 0
KHO1 121412Z 19006KT M03/M11 A3025 RMK A01 T10321112  RH  054%=      5-min Rain = 0
KHO1 121413Z 19006KT M03/M11 A3025 RMK A01 T10331112  RH  054%=      5-min Rain = 0
KHO1 121414Z 19006KT M03/M11 A3025 RMK A01 T10341112  RH  055%=      5-min Rain = 0
KHO1 121415Z 19005KT M03/M11 A3025 RMK A01 T10341112  RH  055%=      5-min Rain = 0
KHO1 121416Z 19005KT M04/M11 A3025 RMK A01 T10351112  RH  055%=      5-min Rain = 0
KHO1 121417Z 19005KT M04/M11 A3025 RMK A01 T10351111  RH  055%=      5-min Rain = 0
KHO1 121418Z 19005KT M04/M11 A3025 RMK A01 T10351111  RH  055%=      5-min Rain = 0
KHO1 121419Z 19005KT M03/M11 A3025 RMK A01 T10341111  RH  055%=      5-min Rain = 0
KHO1 121420Z 19006KT M03/M11 A3025 RMK A01 T10341110  RH  056%=      5-min Rain = 0
KHO1 121421Z 19006KT M03/M11 A3025 RMK A01 T10331110  RH  055%=      5-min Rain = 0
KHO1 121422Z 18005KT M03/M11 A3025 RMK A01 T10311109  RH  055%=      5-min Rain = 0
KHO1 121423Z 18005KT M03/M11 A3025 RMK A01 T10301109  RH  055%=      5-min Rain = 0
KHO1 121424Z 18005KT M03/M11 A3025 RMK A01 T10281109  RH  054%=      5-min Rain = 0
KHO1 121425Z 18005KT M03/M11 A3025 RMK A01 T10281109  RH  053%=      5-min Rain = 0
KHO1 121426Z 18004KT M03/M11 A3025 RMK A01 T10271109  RH  053%=      5-min Rain = 0
KHO1 121427Z 18004KT M03/M11 A3025 RMK A01 T10261109  RH  053%=      5-min Rain = 0
KHO1 121428Z 18004KT M03/M11 A3025 RMK A01 T10261109  RH  053%=      5-min Rain = 0
KHO1 121429Z 18004KT M03/M11 A3025 RMK A01 T10251109  RH  053%=      5-min Rain = 0
KHO1 121430Z 18004KT M02/M11 A3025 RMK A01 T10241108  RH  052%=      5-min Rain = 0
KHO1 121431Z 18004KT M02/M11 A3025 RMK A01 T10231108  RH  052%=      5-min Rain = 0
KHO1 121432Z 18004KT M02/M11 A3025 RMK A01 T10221108  RH  052%=      5-min Rain = 0
KHO1 121433Z 19004KT M02/M11 A3025 RMK A01 T10211109  RH  051%=      5-min Rain = 0
KHO1 121434Z 18004KT M02/M11 A3025 RMK A01 T10211109  RH  051%=      5-min Rain = 0
KHO1 121435Z 18005KT M02/M11 A3025 RMK A01 T10211109  RH  051%=      5-min Rain = 0
KHO1 121436Z 18005KT M02/M11 A3025 RMK A01 T10211108  RH  051%=      5-min Rain = 0
KHO1 121437Z 19005KT M02/M11 A3025 RMK A01 T10201108  RH  051%=      5-min Rain = 0
KHO1 121438Z 19005KT M02/M11 A3025 RMK A01 T10181107  RH  051%=      5-min Rain = 0
KHO1 121439Z 19006KT M02/M11 A3025 RMK A01 T10171107  RH  050%=      5-min Rain = 0
KHO1 121440Z 19006KT M02/M11 A3025 RMK A01 T10151108  RH  049%=      5-min Rain = 0
KHO1 121441Z 19005KT M02/M11 A3025 RMK A01 T10151108  RH  049%=      5-min Rain = 0
KHO1 121442Z 19006KT M01/M11 A3025 RMK A01 T10141108  RH  049%=      5-min Rain = 0
KHO1 121443Z 19005KT M01/M11 A3025 RMK A01 T10141109  RH  048%=      5-min Rain = 0
KHO1 121444Z 19005KT M01/M11 A3025 RMK A01 T10131108  RH  048%=      5-min Rain = 0
KHO1 121445Z 19005KT M01/M11 A3025 RMK A01 T10131108  RH  048%=      5-min Rain = 0
KHO1 121446Z 19006KT M01/M11 A3025 RMK A01 T10121108  RH  048%=      5-min Rain = 0
KHO1 121447Z 19007KT M01/M11 A3025 RMK A01 T10111108  RH  048%=      5-min Rain = 0
KHO1 121448Z 19007KT M01/M11 A3025 RMK A01 T10101109  RH  047%=      5-min Rain = 0
KHO1 121449Z 18007KT M01/M11 A3025 RMK A01 T10091109  RH  047%=      5-min Rain = 0
KHO1 121450Z 19008KT M01/M11 A3024 RMK A01 T10081109  RH  046%=      5-min Rain = 0
KHO1 121451Z 19008KT M01/M11 A3024 RMK A01 T10071109  RH  046%=      5-min Rain = 0
KHO1 121452Z 18007KT M01/M11 A3024 RMK A01 T10061109  RH  046%=      5-min Rain = 0
KHO1 121453Z 18009KT M01/M11 A3024 RMK A01 T10051110  RH  045%=      5-min Rain = 0
KHO1 121454Z 18008KT M00/M11 A3024 RMK A01 T10041110  RH  045%=      5-min Rain = 0
KHO1 121455Z 18008KT M00/M11 A3025 RMK A01 T10031110  RH  044%=      5-min Rain = 0
KHO1 121456Z 18008KT M00/M11 A3025 RMK A01 T10031110  RH  044%=      5-min Rain = 0
KHO1 121457Z 18009KT M00/M11 A3025 RMK A01 T10021111  RH  044%=      5-min Rain = 0
KHO1 121458Z 18008KT M00/M11 A3025 RMK A01 T10011111  RH  043%=      5-min Rain = 0
KHO1 121459Z 18009KT M00/M11 A3025 RMK A01 T10011112  RH  043%=      5-min Rain = 0
KHO1 121500Z 18009KT 00/11 A3025 RMK A01 T00-00-111  RH  043%=      5-min Rain = 0
KHO1 121501Z 18009KT 00/11 A3025 RMK A01 T00000-111  RH  043%=      5-min Rain = 0
KHO1 121502Z 18008KT 00/M11 A3025 RMK A01 T00011111  RH  043%=      5-min Rain = 0
KHO1 121503Z 18008KT 00/M11 A3025 RMK A01 T00021111  RH  042%=      5-min Rain = 0
KHO1 121504Z 18009KT 00/M11 A3025 RMK A01 T00031111  RH  042%=      5-min Rain = 0
KHO1 121505Z 18009KT 01/M11 A3025 RMK A01 T00051111  RH  042%=      5-min Rain = 0
KHO1 121506Z 18010KT 01/M11 A3025 RMK A01 T00061112  RH  041%=      5-min Rain = 0
KHO1 121507Z 18010KT 01/M11 A3025 RMK A01 T00081112  RH  040%=      5-min Rain = 0
KHO1 121508Z 18011KT 01/M11 A3025 RMK A01 T00081113  RH  040%=      5-min Rain = 0
KHO1 121509Z 18009KT 01/M11 A3025 RMK A01 T00091113  RH  040%=      5-min Rain = 0
KHO1 121510Z 18009KT 01/M11 A3025 RMK A01 T00101113  RH  039%=      5-min Rain = 0
KHO1 121511Z 17009KT 01/M11 A3025 RMK A01 T00111113  RH  039%=      5-min Rain = 0
KHO1 121512Z 18009KT 01/M11 A3025 RMK A01 T00111114  RH  039%=      5-min Rain = 0
KHO1 121513Z 18009KT 01/M11 A3025 RMK A01 T00131113  RH  039%=      5-min Rain = 0
KHO1 121514Z 18010KT 01/M11 A3025 RMK A01 T00131114  RH  038%=      5-min Rain = 0
KHO1 121515Z 17010KT 01/M11 A3025 RMK A01 T00131114  RH  038%=      5-min Rain = 0
KHO1 121516Z 17009KT 01/M11 A3025 RMK A01 T00141113  RH  038%=      5-min Rain = 0
KHO1 121517Z 17009KT 02/M11 A3025 RMK A01 T00151113  RH  038%=      5-min Rain = 0
KHO1 121518Z 17009KT 02/M11 A3025 RMK A01 T00161114  RH  037%=      5-min Rain = 0
KHO1 121519Z 17008KT 02/M11 A3024 RMK A01 T00171113  RH  037%=      5-min Rain = 0
KHO1 121520Z 17008KT 02/M11 A3024 RMK A01 T00181112  RH  037%=      5-min Rain = 0
KHO1 121521Z 17008KT 02/M11 A3024 RMK A01 T00191112  RH  037%=      5-min Rain = 0
KHO1 121522Z 18010KT 02/M11 A3024 RMK A01 T00191112  RH  037%=      5-min Rain = 0
KHO1 121523Z 18010KT 02/M11 A3024 RMK A01 T00191113  RH  037%=      5-min Rain = 0
KHO1 121524Z 18010KT 02/M11 A3024 RMK A01 T00191114  RH  037%=      5-min Rain = 0
KHO1 121525Z 18010KT 02/M11 A3024 RMK A01 T00191114  RH  037%=      5-min Rain = 0
KHO1 121526Z 17009KT 02/M11 A3024 RMK A01 T00201112  RH  037%=      5-min Rain = 0
KHO1 121527Z 17009KT 02/M11 A3024 RMK A01 T00211112  RH  037%=      5-min Rain = 0
KHO1 121528Z 17009KT 02/M11 A3024 RMK A01 T00211113  RH  036%=      5-min Rain = 0
KHO1 121529Z 17009KT 02/M11 A3024 RMK A01 T00211113  RH  036%=      5-min Rain = 0
KHO1 121530Z 18010KT 02/M11 A3024 RMK A01 T00211114  RH  036%=      5-min Rain = 0
KHO1 121531Z 18008KT 02/M11 A3024 RMK A01 T00211113  RH  036%=      5-min Rain = 0
KHO1 121532Z 19009KT 02/M11 A3024 RMK A01 T00221111  RH  037%=      5-min Rain = 0
KHO1 121533Z 18011KT 02/M11 A3024 RMK A01 T00231113  RH  036%=      5-min Rain = 0
KHO1 121534Z 19011KT 02/M11 A3024 RMK A01 T00221114  RH  036%=      5-min Rain = 0
KHO1 121535Z 18008KT 02/M11 A3024 RMK A01 T00231111  RH  037%=      5-min Rain = 0
KHO1 121536Z 19008G13KT 02/M11 A3024 RMK A01 T00241111  RH  036%=      5-min Rain = 0
KHO1 121537Z 19009KT 02/M11 A3024 RMK A01 T00231112  RH  036%=      5-min Rain = 0
KHO1 121538Z 18008KT 02/M11 A3024 RMK A01 T00241111  RH  036%=      5-min Rain = 0
KHO1 121539Z 18009KT 03/M11 A3024 RMK A01 T00251112  RH  036%=      5-min Rain = 0
KHO1 121540Z 18008KT 02/M11 A3025 RMK A01 T00241112  RH  036%=      5-min Rain = 0
KHO1 121541Z 18011KT 03/M11 A3025 RMK A01 T00251113  RH  036%=      5-min Rain = 0
KHO1 121542Z 18011KT 02/M11 A3025 RMK A01 T00241113  RH  035%=      5-min Rain = 0
KHO1 121543Z 18011KT 02/M11 A3025 RMK A01 T00241113  RH  036%=      5-min Rain = 0
KHO1 121544Z 18010KT 02/M11 A3025 RMK A01 T00241112  RH  036%=      5-min Rain = 0
KHO1 121545Z 17009KT 03/M11 A3025 RMK A01 T00251111  RH  036%=      5-min Rain = 0
KHO1 121546Z 18008KT 03/M11 A3025 RMK A01 T00271109  RH  036%=      5-min Rain = 0
KHO1 121547Z 19010KT 03/M11 A3025 RMK A01 T00281110  RH  035%=      5-min Rain = 0
KHO1 121548Z 18009KT 03/M11 A3025 RMK A01 T00271110  RH  036%=      5-min Rain = 0
KHO1 121549Z 19009KT 03/M11 A3025 RMK A01 T00281109  RH  036%=      5-min Rain = 0
KHO1 121550Z 19011KT 03/M11 A3025 RMK A01 T00291109  RH  035%=      5-min Rain = 0
KHO1 121551Z 19010KT 03/M11 A3025 RMK A01 T00301109  RH  035%=      5-min Rain = 0
KHO1 121552Z 18012KT 03/M11 A3025 RMK A01 T00301110  RH  035%=      5-min Rain = 0
KHO1 121553Z 19012KT 03/M11 A3025 RMK A01 T00291111  RH  035%=      5-min Rain = 0
KHO1 121554Z 19012KT 03/M11 A3025 RMK A01 T00301111  RH  035%=      5-min Rain = 0
KHO1 121555Z 18012KT 03/M11 A3024 RMK A01 T00311111  RH  034%=      5-min Rain = 0
KHO1 121556Z 18012KT 03/M11 A3024 RMK A01 T00311113  RH  034%=      5-min Rain = 0
KHO1 121557Z 18012KT 03/M11 A3024 RMK A01 T00311112  RH  034%=      5-min Rain = 0
KHO1 121558Z 19013KT 03/M11 A3025 RMK A01 T00311112  RH  034%=      5-min Rain = 0
KHO1 121559Z 18012KT 03/M11 A3025 RMK A01 T00321112  RH  034%=      5-min Rain = 0
KHO1 121600Z 18012KT 03/M11 A3025 RMK A01 T00321112  RH  034%=      5-min Rain = 0
KHO1 121601Z 18013KT 03/M11 A3025 RMK A01 T00311111  RH  034%=      5-min Rain = 0
KHO1 121602Z 18012KT 03/M11 A3025 RMK A01 T00321111  RH  034%=      5-min Rain = 0
KHO1 121603Z 18011KT 03/M11 A3025 RMK A01 T00321110  RH  034%=      5-min Rain = 0
KHO1 121604Z 18012KT 03/M11 A3025 RMK A01 T00331110  RH  034%=      5-min Rain = 0
KHO1 121605Z 18011KT 03/M11 A3025 RMK A01 T00331110  RH  034%=      5-min Rain = 0
KHO1 121606Z 18010KT 04/M11 A3025 RMK A01 T00361108  RH  034%=      5-min Rain = 0
KHO1 121607Z 18010KT 04/M11 A3025 RMK A01 T00361110  RH  033%=      5-min Rain = 0
KHO1 121608Z 18013KT 04/M11 A3025 RMK A01 T00371112  RH  033%=      5-min Rain = 0
KHO1 121609Z 18012KT 04/M11 A3024 RMK A01 T00371112  RH  033%=      5-min Rain = 0
KHO1 121610Z 17013KT 04/M11 A3024 RMK A01 T00381113  RH  032%=      5-min Rain = 0
KHO1 121611Z 18013KT 04/M11 A3024 RMK A01 T00371113  RH  032%=      5-min Rain = 0
KHO1 121612Z 18012KT 04/M11 A3024 RMK A01 T00371112  RH  033%=      5-min Rain = 0
KHO1 121613Z 18012KT 04/M11 A3024 RMK A01 T00391112  RH  032%=      5-min Rain = 0
KHO1 121614Z 18012KT 04/M11 A3024 RMK A01 T00391111  RH  032%=      5-min Rain = 0
KHO1 121615Z 18013KT 04/M11 A3024 RMK A01 T00401112  RH  032%=      5-min Rain = 0
KHO1 121616Z 18013KT 04/M11 A3024 RMK A01 T00411113  RH  032%=      5-min Rain = 0
KHO1 121617Z 18013KT 04/M11 A3024 RMK A01 T00411113  RH  031%=      5-min Rain = 0
KHO1 121618Z 18013KT 04/M11 A3024 RMK A01 T00421113  RH  031%=      5-min Rain = 0
KHO1 121619Z 18014KT 04/M11 A3024 RMK A01 T00431114  RH  031%=      5-min Rain = 0
KHO1 121620Z 18013KT 04/M11 A3024 RMK A01 T00441113  RH  031%=      5-min Rain = 0
KHO1 121621Z 19013KT 05/M11 A3024 RMK A01 T00451114  RH  030%=      5-min Rain = 0
KHO1 121622Z 19013KT 05/M11 A3024 RMK A01 T00471113  RH  030%=      5-min Rain = 0
KHO1 121623Z 19012KT 05/M12 A3024 RMK A01 T00481115  RH  030%=      5-min Rain = 0
KHO1 121624Z 19013KT 05/M12 A3024 RMK A01 T00471115  RH  030%=      5-min Rain = 0
KHO1 121625Z 18013KT 05/M12 A3024 RMK A01 T00471115  RH  030%=      5-min Rain = 0
KHO1 121626Z 19013KT 05/M12 A3024 RMK A01 T00471115  RH  030%=      5-min Rain = 0
KHO1 121627Z 19013KT 05/M11 A3024 RMK A01 T00481114  RH  030%=      5-min Rain = 0
KHO1 121628Z 19012KT 05/M11 A3024 RMK A01 T00481114  RH  030%=      5-min Rain = 0
KHO1 121629Z 19013KT 05/M11 A3024 RMK A01 T00491114  RH  029%=      5-min Rain = 0
KHO1 121630Z 19013KT 05/M12 A3024 RMK A01 T00481115  RH  030%=      5-min Rain = 0
KHO1 121631Z 19013KT 05/M11 A3024 RMK A01 T00491114  RH  030%=      5-min Rain = 0
KHO1 121632Z 19012KT 05/M11 A3024 RMK A01 T00501113  RH  029%=      5-min Rain = 0
KHO1 121633Z 19012KT 05/M11 A3024 RMK A01 T00521113  RH  029%=      5-min Rain = 0
KHO1 121634Z 18014KT 05/M12 A3024 RMK A01 T00511116  RH  029%=      5-min Rain = 0
KHO1 121635Z 20013KT 05/M11 A3024 RMK A01 T00531114  RH  029%=      5-min Rain = 0
KHO1 121636Z 20014KT 05/M12 A3024 RMK A01 T00531116  RH  029%=      5-min Rain = 0
KHO1 121637Z 20015KT 05/M12 A3024 RMK A01 T00521116  RH  028%=      5-min Rain = 0
KHO1 121638Z 19014KT 05/M12 A3024 RMK A01 T00521116  RH  029%=      5-min Rain = 0
KHO1 121639Z 19013KT 05/M12 A3024 RMK A01 T00541115  RH  028%=      5-min Rain = 0
KHO1 121640Z 20014KT 06/M12 A3024 RMK A01 T00551116  RH  028%=      5-min Rain = 0
KHO1 121641Z 19015KT 06/M12 A3024 RMK A01 T00551117  RH  028%=      5-min Rain = 0
KHO1 121642Z 20014KT 06/M12 A3024 RMK A01 T00551117  RH  028%=      5-min Rain = 0
KHO1 121643Z 19013KT 06/M12 A3024 RMK A01 T00561116  RH  028%=      5-min Rain = 0
KHO1 121644Z 19012KT 06/M12 A3024 RMK A01 T00581115  RH  028%=      5-min Rain = 0
KHO1 121645Z 20012KT 06/M11 A3024 RMK A01 T00601114  RH  027%=      5-min Rain = 0
KHO1 121646Z 19015KT 06/M12 A3024 RMK A01 T00601117  RH  027%=      5-min Rain = 0
KHO1 121647Z 19014KT 06/M12 A3024 RMK A01 T00581118  RH  027%=      5-min Rain = 0
KHO1 121648Z 19013KT 06/M12 A3024 RMK A01 T00571119  RH  027%=      5-min Rain = 0
KHO1 121649Z 19010KT 06/M12 A3024 RMK A01 T00591115  RH  027%=      5-min Rain = 0
KHO1 121650Z 19012KT 06/M11 A3024 RMK A01 T00621114  RH  027%=      5-min Rain = 0
KHO1 121651Z 19013KT 06/M12 A3024 RMK A01 T00601117  RH  027%=      5-min Rain = 0
KHO1 121652Z 18012KT 06/M11 A3024 RMK A01 T00611114  RH  027%=      5-min Rain = 0
KHO1 121653Z 19013KT 06/M12 A3024 RMK A01 T00621115  RH  027%=      5-min Rain = 0
KHO1 121654Z 19014KT 06/M12 A3024 RMK A01 T00631115  RH  027%=      5-min Rain = 0
KHO1 121655Z 19012KT 06/M12 A3024 RMK A01 T00621117  RH  026%=      5-min Rain = 0
KHO1 121656Z 19011KT 06/M12 A3024 RMK A01 T00621116  RH  027%=      5-min Rain = 0
KHO1 121657Z 20013KT 07/M11 A3023 RMK A01 T00651113  RH  027%=      5-min Rain = 0
KHO1 121658Z 20013KT 06/M12 A3023 RMK A01 T00641115  RH  026%=      5-min Rain = 0
KHO1 121659Z 20013KT 06/M12 A3023 RMK A01 T00641115  RH  027%=      5-min Rain = 0
KHO1 121700Z 19013KT 07/M12 A3023 RMK A01 T00651115  RH  026%=      5-min Rain = 0
KHO1 121701Z 19014KT 07/M12 A3023 RMK A01 T00651117  RH  026%=      5-min Rain = 0
KHO1 121702Z 19013KT 07/M12 A3023 RMK A01 T00661115  RH  026%=      5-min Rain = 0
KHO1 121703Z 20015KT 07/M12 A3023 RMK A01 T00661115  RH  026%=      5-min Rain = 0
KHO1 121704Z 20016KT 07/M11 A3023 RMK A01 T00661114  RH  026%=      5-min Rain = 0
KHO1 121705Z 19014KT 07/M11 A3023 RMK A01 T00661114  RH  026%=      5-min Rain = 0
KHO1 121706Z 20015KT 07/M11 A3023 RMK A01 T00671114  RH  026%=      5-min Rain = 0
KHO1 121707Z 20015KT 07/M12 A3023 RMK A01 T00671115  RH  026%=      5-min Rain = 0
KHO1 121708Z 20013KT 07/M11 A3023 RMK A01 T00671114  RH  026%=      5-min Rain = 0
KHO1 121709Z 19014KT 07/M11 A3023 RMK A01 T00691114  RH  026%=      5-min Rain = 0
KHO1 121710Z 19012KT 07/M11 A3023 RMK A01 T00691114  RH  026%=      5-min Rain = 0
KHO1 121711Z 19013KT 07/M11 A3023 RMK A01 T00711112  RH  026%=      5-min Rain = 0
KHO1 121712Z 20014KT 07/M11 A3023 RMK A01 T00711113  RH  026%=      5-min Rain = 0
KHO1 121713Z 19011KT 07/M11 A3023 RMK A01 T00721111  RH  026%=      5-min Rain = 0
KHO1 121714Z 19011KT 07/M11 A3023 RMK A01 T00731112  RH  026%=      5-min Rain = 0
KHO1 121715Z 19011KT 07/M11 A3023 RMK A01 T00741110  RH  026%=      5-min Rain = 0
KHO1 121716Z 19011G16KT 08/M11 A3023 RMK A01 T00761110  RH  025%=      5-min Rain = 0
KHO1 121717Z 19013KT 08/M11 A3023 RMK A01 T00751109  RH  026%=      5-min Rain = 0
KHO1 121718Z 20013KT 08/M11 A3023 RMK A01 T00751109  RH  026%=      5-min Rain = 0
KHO1 121719Z 20011KT 08/M11 A3023 RMK A01 T00751110  RH  026%=      5-min Rain = 0
KHO1 121720Z 20010G16KT 07/M11 A3023 RMK A01 T00741110  RH  026%=      5-min Rain = 0
KHO1 121721Z 20015KT 07/M11 A3023 RMK A01 T00741110  RH  026%=      5-min Rain = 0
KHO1 121722Z 20011KT 07/M11 A3023 RMK A01 T00731110  RH  026%=      5-min Rain = 0
KHO1 121723Z 19010KT 08/M11 A3023 RMK A01 T00761107  RH  026%=      5-min Rain = 0
KHO1 121724Z 20012KT 08/M11 A3022 RMK A01 T00781109  RH  025%=      5-min Rain = 0
KHO1 121725Z 20012KT 08/M11 A3022 RMK A01 T00781107  RH  026%=      5-min Rain = 0
KHO1 121726Z 22012KT 08/M10 A3023 RMK A01 T00821102  RH  026%=      5-min Rain = 0
KHO1 121727Z 21011KT 08/M10 A3022 RMK A01 T00811102  RH  026%=      5-min Rain = 0
KHO1 121728Z 21013KT 08/M11 A3022 RMK A01 T00811105  RH  026%=      5-min Rain = 0
KHO1 121729Z 21013G18KT 08/M11 A3022 RMK A01 T00791106  RH  026%=      5-min Rain = 0
KHO1 121730Z 20015KT 08/M10 A3022 RMK A01 T00801103  RH  026%=      5-min Rain = 0
KHO1 121731Z 20013KT 08/M10 A3022 RMK A01 T00791103  RH  026%=      5-min Rain = 0
KHO1 121732Z 20014KT 08/M10 A3022 RMK A01 T00811102  RH  026%=      5-min Rain = 0
KHO1 121733Z 20013KT 08/M10 A3022 RMK A01 T00801102  RH  026%=      5-min Rain = 0
KHO1 121734Z 21012KT 08/M10 A3022 RMK A01 T00831101  RH  026%=      5-min Rain = 0
KHO1 121735Z 20014KT 08/M10 A3022 RMK A01 T00841100  RH  026%=      5-min Rain = 0
KHO1 121736Z 20010KT 09/M10 A3022 RMK A01 T00851099  RH  026%=      5-min Rain = 0
KHO1 121737Z 20013KT 09/M10 A3022 RMK A01 T00861100  RH  026%=      5-min Rain = 0
KHO1 121738Z 20011KT 09/M10 A3022 RMK A01 T00861100  RH  026%=      5-min Rain = 0
KHO1 121739Z 20011KT 08/M10 A3022 RMK A01 T00841102  RH  026%=      5-min Rain = 0
KHO1 121740Z 19013KT 08/M10 A3022 RMK A01 T00821103  RH  026%=      5-min Rain = 0
KHO1 121741Z 19012KT 08/M10 A3022 RMK A01 T00811104  RH  026%=      5-min Rain = 0
KHO1 121742Z 19012KT 08/M10 A3022 RMK A01 T00801104  RH  026%=      5-min Rain = 0
KHO1 121743Z 20012KT 08/M10 A3022 RMK A01 T00811103  RH  026%=      5-min Rain = 0
KHO1 121744Z 20012KT 08/M10 A3022 RMK A01 T00801101  RH  026%=      5-min Rain = 0
KHO1 121745Z 21010KT 08/M10 A3022 RMK A01 T00811101  RH  026%=      5-min Rain = 0
KHO1 121746Z 19008KT 08/M10 A3022 RMK A01 T00841098  RH  027%=      5-min Rain = 0
KHO1 121747Z 20012KT 09/M10 A3022 RMK A01 T00871098  RH  026%=      5-min Rain = 0
KHO1 121748Z 20010KT 08/M10 A3022 RMK A01 T00831099  RH  026%=      5-min Rain = 0
KHO1 121749Z 20007KT 08/M10 A3022 RMK A01 T00841097  RH  027%=      5-min Rain = 0
KHO1 121750Z 20010KT 09/M10 A3022 RMK A01 T00881097  RH  026%=      5-min Rain = 0
KHO1 121751Z 20009KT 09/M10 A3021 RMK A01 T00851100  RH  026%=      5-min Rain = 0
KHO1 121752Z 19008KT 08/M10 A3021 RMK A01 T00841103  RH  026%=      5-min Rain = 0
KHO1 121753Z 19007KT 09/M10 A3021 RMK A01 T00861099  RH  026%=      5-min Rain = 0
KHO1 121754Z 19008KT 09/M10 A3021 RMK A01 T00871101  RH  025%=      5-min Rain = 0
KHO1 121755Z 19011KT 09/M10 A3021 RMK A01 T00871099  RH  026%=      5-min Rain = 0
KHO1 121756Z 20009KT 09/M10 A3021 RMK A01 T00881098  RH  026%=      5-min Rain = 0
KHO1 121757Z 21008KT 09/M10 A3021 RMK A01 T00881100  RH  025%=      5-min Rain = 0
KHO1 121758Z 20009KT 09/M10 A3021 RMK A01 T00871099  RH  026%=      5-min Rain = 0
KHO1 121759Z 19010KT 09/M10 A3021 RMK A01 T00881097  RH  026%=      5-min Rain = 0
KHO1 121800Z 20010KT 09/M10 A3021 RMK A01 T00881098  RH  026%=      5-min Rain = 0
KHO1 121801Z 19010KT 09/M10 A3021 RMK A01 T00881099  RH  025%=      5-min Rain = 0
KHO1 121802Z 19008KT 09/M10 A3021 RMK A01 T00881099  RH  026%=      5-min Rain = 0
KHO1 121803Z 19010KT 09/M10 A3021 RMK A01 T00891097  RH  026%=      5-min Rain = 0
KHO1 121804Z 20010KT 09/M09 A3021 RMK A01 T00901094  RH  026%=      5-min Rain = 0
KHO1 121805Z 21008KT 09/M09 A3021 RMK A01 T00901093  RH  026%=      5-min Rain = 0
KHO1 121806Z 23008KT 09/M09 A302 RMK A01 T00931092  RH  026%=      5-min Rain = 0
KHO1 121807Z 21008KT 09/M09 A302 RMK A01 T00931094  RH  026%=      5-min Rain = 0
KHO1 121808Z 20010KT 09/M09 A302 RMK A01 T00931094  RH  026%=      5-min Rain = 0
KHO1 121809Z 20009KT 09/M10 A302 RMK A01 T00901096  RH  026%=      5-min Rain = 0
KHO1 121810Z 19007KT 09/M10 A302 RMK A01 T00891096  RH  026%=      5-min Rain = 0
KHO1 121811Z 19008KT 09/M09 A302 RMK A01 T00911093  RH  026%=      5-min Rain = 0
KHO1 121812Z 19009KT 09/M10 A302 RMK A01 T00911095  RH  026%=      5-min Rain = 0
KHO1 121813Z 21007KT 09/M10 A302 RMK A01 T00891095  RH  026%=      5-min Rain = 0
KHO1 121814Z 21008KT 09/M09 A302 RMK A01 T00901094  RH  026%=      5-min Rain = 0
KHO1 121815Z 20009KT 09/M09 A302 RMK A01 T00911094  RH  026%=      5-min Rain = 0
KHO1 121816Z 19007KT 09/M10 A302 RMK A01 T00911095  RH  026%=      5-min Rain = 0
KHO1 121817Z 21009KT 09/M09 A3019 RMK A01 T00921093  RH  026%=      5-min Rain = 0
KHO1 121818Z 21009KT 09/M09 A3019 RMK A01 T00941092  RH  026%=      5-min Rain = 0
KHO1 121819Z 22009KT 10/M09 A3019 RMK A01 T00971091  RH  026%=      5-min Rain = 0
KHO1 121820Z 20010KT 10/M09 A3019 RMK A01 T00961092  RH  025%=      5-min Rain = 0
KHO1 121821Z 21008KT 10/M09 A3019 RMK A01 T00981092  RH  025%=      5-min Rain = 0
KHO1 121822Z 21008KT 10/M09 A3019 RMK A01 T00991091  RH  025%=      5-min Rain = 0
KHO1 121823Z 19010KT 10/M09 A3019 RMK A01 T00991091  RH  025%=      5-min Rain = 0
KHO1 121824Z 20009KT 10/M09 A3018 RMK A01 T00991092  RH  025%=      5-min Rain = 0
KHO1 121825Z 20010KT 10/M09 A3018 RMK A01 T00981093  RH  025%=      5-min Rain = 0
KHO1 121826Z 20009KT 10/M09 A3018 RMK A01 T00981091  RH  026%=      5-min Rain = 0
KHO1 121827Z 19010KT 10/M09 A3018 RMK A01 T01011091  RH  025%=      5-min Rain = 0
KHO1 121828Z 19008KT 10/M09 A3018 RMK A01 T00991091  RH  025%=      5-min Rain = 0
KHO1 121829Z 22010KT 10/M09 A3018 RMK A01 T01021089  RH  025%=      5-min Rain = 0
KHO1 121830Z 22007KT 10/M09 A3018 RMK A01 T01011091  RH  025%=      5-min Rain = 0
KHO1 121831Z 22007KT 10/M09 A3018 RMK A01 T01021088  RH  025%=      5-min Rain = 0
KHO1 121832Z 21008KT 10/M09 A3018 RMK A01 T01041089  RH  025%=      5-min Rain = 0
KHO1 121833Z 21006KT 10/M09 A3018 RMK A01 T01031090  RH  025%=      5-min Rain = 0
KHO1 121834Z 19008KT 10/M09 A3018 RMK A01 T01041089  RH  025%=      5-min Rain = 0
KHO1 121835Z 18008KT 10/M09 A3018 RMK A01 T01041090  RH  025%=      5-min Rain = 0
KHO1 121836Z 20009KT 11/M09 A3018 RMK A01 T01071087  RH  025%=      5-min Rain = 0
KHO1 121837Z 20009KT 11/M09 A3017 RMK A01 T01071089  RH  024%=      5-min Rain = 0
KHO1 121838Z 19010KT 11/M09 A3017 RMK A01 T01061088  RH  025%=      5-min Rain = 0
KHO1 121839Z 19008KT 11/M09 A3017 RMK A01 T01061088  RH  025%=      5-min Rain = 0
KHO1 121840Z 20007KT 11/M09 A3017 RMK A01 T01061088  RH  025%=      5-min Rain = 0
KHO1 121841Z 19007KT 11/M09 A3017 RMK A01 T01081085  RH  025%=      5-min Rain = 0
KHO1 121842Z 19009KT 11/M09 A3017 RMK A01 T01101085  RH  024%=      5-min Rain = 0
KHO1 121843Z 21011KT 11/M09 A3017 RMK A01 T01101086  RH  024%=      5-min Rain = 0
KHO1 121844Z 22008KT 11/M08 A3017 RMK A01 T01111084  RH  025%=      5-min Rain = 0
KHO1 121845Z 22008KT 11/M08 A3017 RMK A01 T01121083  RH  025%=      5-min Rain = 0
KHO1 121846Z 21008KT 11/M09 A3017 RMK A01 T01121085  RH  024%=      5-min Rain = 0
KHO1 121847Z 21007KT 11/M09 A3017 RMK A01 T01101087  RH  024%=      5-min Rain = 0
KHO1 121848Z 22006KT 11/M09 A3017 RMK A01 T01101085  RH  025%=      5-min Rain = 0
KHO1 121849Z 21007KT 11/M08 A3016 RMK A01 T01111084  RH  025%=      5-min Rain = 0
KHO1 121850Z 21010KT 11/M08 A3016 RMK A01 T01121083  RH  025%=      5-min Rain = 0
KHO1 121851Z 22011KT 11/M08 A3016 RMK A01 T01141082  RH  024%=      5-min Rain = 0
KHO1 121852Z 22010KT 12/M08 A3016 RMK A01 T01161083  RH  024%=      5-min Rain = 0
KHO1 121853Z 21009KT 11/M08 A3016 RMK A01 T01141083  RH  024%=      5-min Rain = 0
KHO1 121854Z 22007KT 11/M08 A3016 RMK A01 T01131084  RH  024%=      5-min Rain = 0
KHO1 121855Z 22006KT 12/M08 A3016 RMK A01 T01151082  RH  024%=      5-min Rain = 0
KHO1 121856Z 22007KT 11/M08 A3016 RMK A01 T01141082  RH  024%=      5-min Rain = 0
KHO1 121857Z 21009KT 12/M08 A3016 RMK A01 T01181081  RH  024%=      5-min Rain = 0
KHO1 121858Z 21010KT 12/M08 A3016 RMK A01 T01181082  RH  024%=      5-min Rain = 0
KHO1 121859Z 22007KT 12/M08 A3016 RMK A01 T01171084  RH  024%=      5-min Rain = 0
KHO1 121900Z 22009KT 12/M08 A3016 RMK A01 T01171083  RH  024%=      5-min Rain = 0
KHO1 121901Z 26008KT 12/M08 A3016 RMK A01 T01181084  RH  024%=      5-min Rain = 0
KHO1 121902Z 23008KT 12/M08 A3016 RMK A01 T01211083  RH  023%=      5-min Rain = 0
KHO1 121903Z 23008KT 12/M08 A3016 RMK A01 T01191084  RH  023%=      5-min Rain = 0
KHO1 121904Z 22008KT 12/M08 A3015 RMK A01 T01191082  RH  024%=      5-min Rain = 0
KHO1 121905Z 21007KT 12/M08 A3015 RMK A01 T01221081  RH  023%=      5-min Rain = 0
KHO1 121906Z 22008KT 12/M08 A3015 RMK A01 T01231082  RH  023%=      5-min Rain = 0
KHO1 121907Z 22010KT 12/M08 A3015 RMK A01 T01241083  RH  023%=      5-min Rain = 0
KHO1 121908Z 22007KT 12/M08 A3015 RMK A01 T01231083  RH  023%=      5-min Rain = 0
KHO1 121909Z 22009KT 13/M08 A3015 RMK A01 T01251083  RH  023%=      5-min Rain = 0
KHO1 121910Z 22007KT 13/M08 A3015 RMK A01 T01261082  RH  023%=      5-min Rain = 0
KHO1 121911Z 24009KT 13/M08 A3015 RMK A01 T01281081  RH  022%=      5-min Rain = 0
KHO1 121912Z 27008KT 13/M08 A3015 RMK A01 T01301082  RH  022%=      5-min Rain = 0
KHO1 121913Z 28006KT 13/M08 A3015 RMK A01 T01291083  RH  022%=      5-min Rain = 0
KHO1 121914Z 28006KT 13/M08 A3015 RMK A01 T01281082  RH  022%=      5-min Rain = 0
KHO1 121915Z 25009KT 13/M08 A3015 RMK A01 T01291081  RH  022%=      5-min Rain = 0
KHO1 121916Z 24005KT 13/M08 A3015 RMK A01 T01301082  RH  022%=      5-min Rain = 0
KHO1 121917Z 23006KT 13/M08 A3015 RMK A01 T01301082  RH  022%=      5-min Rain = 0
KHO1 121918Z 24007KT 13/M08 A3015 RMK A01 T01301082  RH  022%=      5-min Rain = 0
KHO1 121919Z 23008KT 13/M08 A3015 RMK A01 T01301082  RH  022%=      5-min Rain = 0
KHO1 121920Z 22008KT 13/M08 A3014 RMK A01 T01311082  RH  022%=      5-min Rain = 0
KHO1 121921Z 24007KT 13/M08 A3014 RMK A01 T01301083  RH  022%=      5-min Rain = 0
KHO1 121922Z 23008KT 13/M08 A3014 RMK A01 T01301082  RH  022%=      5-min Rain = 0
KHO1 121923Z 23008KT 13/M09 A3014 RMK A01 T01291085  RH  022%=      5-min Rain = 0
KHO1 121924Z 23005KT 13/M09 A3014 RMK A01 T01261085  RH  022%=      5-min Rain = 0
KHO1 121925Z 23007G13KT 13/M08 A3014 RMK A01 T01261083  RH  023%=      5-min Rain = 0
KHO1 121926Z 24010KT 13/M08 A3014 RMK A01 T01301082  RH  022%=      5-min Rain = 0
KHO1 121927Z 25008KT 13/M08 A3014 RMK A01 T01311083  RH  022%=      5-min Rain = 0
KHO1 121928Z 26007KT 13/M08 A3014 RMK A01 T01321082  RH  022%=      5-min Rain = 0
KHO1 121929Z 24008KT 13/M08 A3014 RMK A01 T01331084  RH  021%=      5-min Rain = 0
KHO1 121930Z 25006KT 13/M08 A3014 RMK A01 T01311084  RH  022%=      5-min Rain = 0
KHO1 121931Z 25005KT 13/M08 A3013 RMK A01 T01321084  RH  022%=      5-min Rain = 0
KHO1 121932Z 27004KT 13/M08 A3013 RMK A01 T01321083  RH  022%=      5-min Rain = 0
KHO1 121933Z 26008KT 13/M08 A3013 RMK A01 T01341083  RH  021%=      5-min Rain = 0
KHO1 121934Z 25006KT 14/M08 A3014 RMK A01 T01371081  RH  021%=      5-min Rain = 0
KHO1 121935Z 24004KT 14/M08 A3013 RMK A01 T01371084  RH  021%=      5-min Rain = 0
KHO1 121936Z 25008KT 14/M08 A3013 RMK A01 T01371083  RH  021%=      5-min Rain = 0
KHO1 121937Z 26009KT 14/M08 A3013 RMK A01 T01391083  RH  021%=      5-min Rain = 0
KHO1 121938Z 27008KT 14/M09 A3013 RMK A01 T01371085  RH  021%=      5-min Rain = 0
KHO1 121939Z 26006KT 14/M08 A3013 RMK A01 T01361084  RH  021%=      5-min Rain = 0
KHO1 121940Z 27009KT 14/M08 A3013 RMK A01 T01381084  RH  021%=      5-min Rain = 0
KHO1 121941Z 28007KT 14/M09 A3013 RMK A01 T01381085  RH  021%=      5-min Rain = 0
KHO1 121942Z 27005KT 14/M09 A3013 RMK A01 T01371085  RH  021%=      5-min Rain = 0
KHO1 121943Z 26003KT 14/M08 A3013 RMK A01 T01361084  RH  021%=      5-min Rain = 0
KHO1 121944Z 27006KT 14/M08 A3013 RMK A01 T01371082  RH  021%=      5-min Rain = 0
KHO1 121945Z 26008KT 14/M08 A3013 RMK A01 T01401083  RH  021%=      5-min Rain = 0
KHO1 121946Z 25009KT 14/M08 A3013 RMK A01 T01401084  RH  020%=      5-min Rain = 0
KHO1 121947Z 25008KT 14/M09 A3013 RMK A01 T01391085  RH  020%=      5-min Rain = 0
KHO1 121948Z 26007KT 14/M08 A3013 RMK A01 T01381083  RH  021%=      5-min Rain = 0
KHO1 121949Z 26008KT 14/M08 A3013 RMK A01 T01391084  RH  020%=      5-min Rain = 0
KHO1 121950Z 27006KT 14/M08 A3013 RMK A01 T01381083  RH  021%=      5-min Rain = 0
KHO1 121951Z 25006KT 14/M08 A3013 RMK A01 T01401081  RH  021%=      5-min Rain = 0
KHO1 121952Z 25008KT 14/M08 A3013 RMK A01 T01411083  RH  020%=      5-min Rain = 0
KHO1 121953Z 26006KT 14/M08 A3012 RMK A01 T01411083  RH  020%=      5-min Rain = 0
KHO1 121954Z 26007KT 14/M08 A3012 RMK A01 T01431083  RH  020%=      5-min Rain = 0
KHO1 121955Z 25009KT 14/M08 A3012 RMK A01 T01421082  RH  020%=      5-min Rain = 0
KHO1 121956Z 26009KT 14/M08 A3012 RMK A01 T01421082  RH  020%=      5-min Rain = 0
KHO1 121957Z 25010KT 14/M08 A3012 RMK A01 T01421082  RH  020%=      5-min Rain = 0
KHO1 121958Z 24009KT 14/M08 A3012 RMK A01 T01411083  RH  020%=      5-min Rain = 0
KHO1 121959Z 24007KT 14/M08 A3012 RMK A01 T01401083  RH  021%=      5-min Rain = 0
KHO1 122000Z 25009KT 14/M08 A3012 RMK A01 T01421081  RH  021%=      5-min Rain = 0
KHO1 122001Z 27010KT 14/M08 A3012 RMK A01 T01431082  RH  020%=      5-min Rain = 0
KHO1 122002Z 27010KT 15/M08 A3012 RMK A01 T01461081  RH  020%=      5-min Rain = 0
KHO1 122003Z 28009KT 15/M08 A3012 RMK A01 T01461082  RH  020%=      5-min Rain = 0
KHO1 122004Z 28008KT 15/M08 A3012 RMK A01 T01451082  RH  020%=      5-min Rain = 0
KHO1 122005Z 27007KT 14/M08 A3012 RMK A01 T01441082  RH  020%=      5-min Rain = 0
KHO1 122006Z 26008G13KT 15/M08 A3012 RMK A01 T01461080  RH  020%=      5-min Rain = 0
KHO1 122007Z 25010KT 15/M08 A3012 RMK A01 T01481082  RH  020%=      5-min Rain = 0
KHO1 122008Z 25009KT 15/M08 A3012 RMK A01 T01471082  RH  020%=      5-min Rain = 0
KHO1 122009Z 27007KT 15/M08 A3012 RMK A01 T01481082  RH  020%=      5-min Rain = 0
KHO1 122010Z 27010KT 15/M08 A3012 RMK A01 T01501082  RH  019%=      5-min Rain = 0
KHO1 122011Z 25008KT 15/M08 A3012 RMK A01 T01471083  RH  020%=      5-min Rain = 0
KHO1 122012Z 26007G12KT 15/M08 A3012 RMK A01 T01481081  RH  020%=      5-min Rain = 0
KHO1 122013Z 27011KT 15/M08 A3012 RMK A01 T01481083  RH  019%=      5-min Rain = 0
KHO1 122014Z 26012KT 15/M08 A3012 RMK A01 T01491082  RH  019%=      5-min Rain = 0
KHO1 122015Z 27013KT 15/M08 A3012 RMK A01 T01491083  RH  019%=      5-min Rain = 0
KHO1 122016Z 26012KT 15/M08 A3012 RMK A01 T01491083  RH  019%=      5-min Rain = 0
KHO1 122017Z 27011KT 15/M08 A3012 RMK A01 T01491083  RH  019%=      5-min Rain = 0
KHO1 122018Z 28010KT 15/M08 A3012 RMK A01 T01501084  RH  019%=      5-min Rain = 0
KHO1 122019Z 28009KT 15/M08 A3011 RMK A01 T01491083  RH  019%=      5-min Rain = 0
KHO1 122020Z 27008KT 15/M08 A3012 RMK A01 T01511082  RH  019%=      5-min Rain = 0
KHO1 122021Z 26009KT 15/M08 A3011 RMK A01 T01541081  RH  019%=      5-min Rain = 0
KHO1 122022Z 28010KT 15/M08 A3011 RMK A01 T01541083  RH  019%=      5-min Rain = 0
KHO1 122023Z 29008KT 15/M08 A3011 RMK A01 T01521084  RH  019%=      5-min Rain = 0
KHO1 122024Z 29008KT 15/M08 A3011 RMK A01 T01531082  RH  019%=      5-min Rain = 0
KHO1 122025Z 27011KT 16/M08 A3011 RMK A01 T01551083  RH  019%=      5-min Rain = 0
KHO1 122026Z 28009KT 16/M08 A3011 RMK A01 T01561084  RH  018%=      5-min Rain = 0
KHO1 122027Z 26010KT 15/M09 A3011 RMK A01 T01541085  RH  019%=      5-min Rain = 0
KHO1 122028Z 28011KT 15/M08 A3011 RMK A01 T01531083  RH  019%=      5-min Rain = 0
KHO1 122029Z 27011KT 15/M08 A3011 RMK A01 T01531084  RH  019%=      5-min Rain = 0
KHO1 122030Z 27007KT 15/M08 A3011 RMK A01 T01531082  RH  019%=      5-min Rain = 0
KHO1 122031Z 26011KT 15/M08 A3011 RMK A01 T01541082  RH  019%=      5-min Rain = 0
KHO1 122032Z 26009KT 15/M08 A3011 RMK A01 T01531083  RH  019%=      5-min Rain = 0
KHO1 122033Z 27012KT 15/M08 A3011 RMK A01 T01541082  RH  019%=      5-min Rain = 0
KHO1 122034Z 26011KT 16/M08 A3011 RMK A01 T01551081  RH  019%=      5-min Rain = 0
KHO1 122035Z 27012KT 16/M08 A3011 RMK A01 T01551082  RH  019%=      5-min Rain = 0
KHO1 122036Z 26011KT 16/M08 A301 RMK A01 T01551081  RH  019%=      5-min Rain = 0
KHO1 122037Z 27010KT 16/M08 A301 RMK A01 T01561082  RH  019%=      5-min Rain = 0
KHO1 122038Z 28011G17KT 16/M08 A301 RMK A01 T01561081  RH  019%=      5-min Rain = 0
KHO1 122039Z 27014KT 16/M08 A301 RMK A01 T01561083  RH  019%=      5-min Rain = 0
KHO1 122040Z 28011KT 16/M08 A301 RMK A01 T01551082  RH  019%=      5-min Rain = 0
KHO1 122041Z 28011KT 16/M08 A301 RMK A01 T01551082  RH  019%=      5-min Rain = 0
KHO1 122042Z 28009KT 15/M08 A301 RMK A01 T01541082  RH  019%=      5-min Rain = 0
KHO1 122043Z 27011KT 16/M08 A301 RMK A01 T01551082  RH  019%=      5-min Rain = 0
KHO1 122044Z 25012KT 15/M08 A301 RMK A01 T01531082  RH  019%=      5-min Rain = 0
KHO1 122045Z 27012KT 16/M08 A301 RMK A01 T01571079  RH  019%=      5-min Rain = 0
KHO1 122046Z 27010KT 16/M08 A301 RMK A01 T01571082  RH  019%=      5-min Rain = 0
KHO1 122047Z 26007KT 16/M08 A301 RMK A01 T01581080  RH  019%=      5-min Rain = 0
KHO1 122048Z 27008KT 16/M08 A301 RMK A01 T01581082  RH  018%=      5-min Rain = 0
KHO1 122049Z 28010KT 16/M08 A301 RMK A01 T01571082  RH  018%=      5-min Rain = 0
KHO1 122050Z 28010KT 16/M08 A301 RMK A01 T01551082  RH  019%=      5-min Rain = 0
KHO1 122051Z 27012KT 16/M08 A301 RMK A01 T01551082  RH  019%=      5-min Rain = 0
KHO1 122052Z 28013KT 16/M08 A301 RMK A01 T01561081  RH  019%=      5-min Rain = 0
KHO1 122053Z 28010KT 16/M08 A301 RMK A01 T01561082  RH  019%=      5-min Rain = 0
KHO1 122054Z 27011KT 16/M08 A301 RMK A01 T01551082  RH  019%=      5-min Rain = 0
KHO1 122055Z 27009KT 16/M08 A301 RMK A01 T01561080  RH  019%=      5-min Rain = 0
KHO1 122056Z 27010KT 16/M08 A301 RMK A01 T01581080  RH  019%=      5-min Rain = 0
KHO1 122057Z 26010KT 16/M08 A301 RMK A01 T01581081  RH  019%=      5-min Rain = 0
KHO1 122058Z 26012KT 16/M08 A301 RMK A01 T01601081  RH  018%=      5-min Rain = 0
KHO1 122059Z 27012KT 16/M08 A301 RMK A01 T01591081  RH  018%=      5-min Rain = 0
KHO1 122100Z 27014KT 16/M08 A301 RMK A01 T01581081  RH  019%=      5-min Rain = 0
KHO1 122101Z 30013KT 16/M08 A301 RMK A01 T01571081  RH  019%=      5-min Rain = 0
KHO1 122102Z 29010G15KT 16/M08 A301 RMK A01 T01561080  RH  019%=      5-min Rain = 0
KHO1 122103Z 29010KT 16/M08 A301 RMK A01 T01581080  RH  019%=      5-min Rain = 0
KHO1 122104Z 27009KT 16/M08 A301 RMK A01 T01571081  RH  019%=      5-min Rain = 0
KHO1 122105Z 26011KT 16/M08 A301 RMK A01 T01571080  RH  019%=      5-min Rain = 0
KHO1 122106Z 26013KT 16/M08 A301 RMK A01 T01591080  RH  019%=      5-min Rain = 0
KHO1 122107Z 27012KT 16/M08 A3009 RMK A01 T01601078  RH  019%=      5-min Rain = 0
KHO1 122108Z 28012KT 16/M08 A3009 RMK A01 T01621079  RH  018%=      5-min Rain = 0
KHO1 122109Z 26011KT 16/M08 A3009 RMK A01 T01611079  RH  019%=      5-min Rain = 0
KHO1 122110Z 28011KT 16/M08 A3009 RMK A01 T01621079  RH  018%=      5-min Rain = 0
KHO1 122111Z 27011KT 16/M08 A301 RMK A01 T01631080  RH  018%=      5-min Rain = 0
KHO1 122112Z 27011KT 16/M08 A3009 RMK A01 T01611080  RH  018%=      5-min Rain = 0
KHO1 122113Z 27012KT 16/M08 A3009 RMK A01 T01611080  RH  018%=      5-min Rain = 0
KHO1 122114Z 28012KT 16/M08 A301 RMK A01 T01601079  RH  019%=      5-min Rain = 0
KHO1 122115Z 27012KT 16/M08 A301 RMK A01 T01611080  RH  018%=      5-min Rain = 0
KHO1 122116Z 26013KT 16/M08 A301 RMK A01 T01601080  RH  018%=      5-min Rain = 0
KHO1 122117Z 26010KT 16/M08 A3009 RMK A01 T01591080  RH  019%=      5-min Rain = 0
KHO1 122118Z 28009KT 16/M08 A3009 RMK A01 T01611078  RH  019%=      5-min Rain = 0
KHO1 122119Z 28012KT 16/M08 A3009 RMK A01 T01631082  RH  018%=      5-min Rain = 0
KHO1 122120Z 28010KT 16/M08 A3009 RMK A01 T01631082  RH  018%=      5-min Rain = 0
KHO1 122121Z 29014KT 16/M08 A3009 RMK A01 T01631082  RH  018%=      5-min Rain = 0
KHO1 122122Z 30010KT 16/M08 A3009 RMK A01 T01621082  RH  018%=      5-min Rain = 0
KHO1 122123Z 29011KT 16/M08 A3009 RMK A01 T01621081  RH  018%=      5-min Rain = 0
KHO1 122124Z 27010KT 16/M08 A3009 RMK A01 T01631080  RH  018%=      5-min Rain = 0
KHO1 122125Z 27010KT 16/M08 A3009 RMK A01 T01641082  RH  018%=      5-min Rain = 0
KHO1 122126Z 29010KT 17/M08 A3009 RMK A01 T01651081  RH  018%=      5-min Rain = 0
KHO1 122127Z 29011KT 17/M08 A3009 RMK A01 T01661081  RH  018%=      5-min Rain = 0
KHO1 122128Z 29011KT 17/M08 A3009 RMK A01 T01651082  RH  018%=      5-min Rain = 0
KHO1 122129Z 30012KT 17/M08 A3009 RMK A01 T01651083  RH  018%=      5-min Rain = 0
KHO1 122130Z 29012KT 17/M08 A3009 RMK A01 T01651082  RH  018%=      5-min Rain = 0
KHO1 122131Z 29011KT 16/M09 A3009 RMK A01 T01641086  RH  017%=      5-min Rain = 0
KHO1 122132Z 28010KT 16/M08 A3009 RMK A01 T01641084  RH  017%=      5-min Rain = 0
KHO1 122133Z 28008KT 17/M08 A3009 RMK A01 T01651082  RH  018%=      5-min Rain = 0
KHO1 122134Z 28009KT 17/M08 A3009 RMK A01 T01681082  RH  017%=      5-min Rain = 0
KHO1 122135Z 28011KT 17/M08 A3009 RMK A01 T01701083  RH  017%=      5-min Rain = 0
KHO1 122136Z 27011KT 17/M08 A3009 RMK A01 T01681084  RH  017%=      5-min Rain = 0
KHO1 122137Z 28010KT 17/M08 A3009 RMK A01 T01661084  RH  017%=      5-min Rain = 0
KHO1 122138Z 29011KT 17/M08 A3009 RMK A01 T01671083  RH  017%=      5-min Rain = 0
KHO1 122139Z 29010KT 17/M08 A3009 RMK A01 T01671084  RH  017%=      5-min Rain = 0
KHO1 122140Z 27008KT 17/M08 A3009 RMK A01 T01671083  RH  017%=      5-min Rain = 0
KHO1 122141Z 28007KT 17/M08 A3009 RMK A01 T01691082  RH  017%=      5-min Rain = 0
KHO1 122142Z 30010KT 17/M08 A3009 RMK A01 T01701083  RH  017%=      5-min Rain = 0
KHO1 122143Z 28008KT 17/M08 A3009 RMK A01 T01701082  RH  017%=      5-min Rain = 0
KHO1 122144Z 29012KT 17/M08 A3009 RMK A01 T01711084  RH  017%=      5-min Rain = 0
KHO1 122145Z 29008KT 17/M08 A3009 RMK A01 T01691083  RH  017%=      5-min Rain = 0
KHO1 122146Z 28011KT 17/M08 A3009 RMK A01 T01681084  RH  017%=      5-min Rain = 0
KHO1 122147Z 28010KT 17/M08 A3009 RMK A01 T01671083  RH  017%=      5-min Rain = 0
KHO1 122148Z 29010KT 17/M08 A3009 RMK A01 T01681083  RH  017%=      5-min Rain = 0
KHO1 122149Z 28011KT 17/M08 A3009 RMK A01 T01681083  RH  017%=      5-min Rain = 0
KHO1 122150Z 29008KT 17/M08 A3009 RMK A01 T01681083  RH  017%=      5-min Rain = 0
KHO1 122151Z 29008KT 17/M08 A3009 RMK A01 T01691083  RH  017%=      5-min Rain = 0
KHO1 122152Z 29009KT 17/M08 A3009 RMK A01 T01691083  RH  017%=      5-min Rain = 0
KHO1 122153Z 28012KT 17/M08 A3009 RMK A01 T01701083  RH  017%=      5-min Rain = 0
KHO1 122154Z 28012KT 17/M08 A3009 RMK A01 T01691084  RH  017%=      5-min Rain = 0
KHO1 122155Z 29009KT 17/M08 A3009 RMK A01 T01671084  RH  017%=      5-min Rain = 0
KHO1 122156Z 28007KT 17/M08 A3009 RMK A01 T01671084  RH  017%=      5-min Rain = 0
KHO1 122157Z 29010KT 17/M08 A3009 RMK A01 T01671083  RH  017%=      5-min Rain = 0
KHO1 122158Z 28011KT 17/M08 A3009 RMK A01 T01681082  RH  017%=      5-min Rain = 0
KHO1 122159Z 29010KT 17/M08 A3009 RMK A01 T01681082  RH  017%=      5-min Rain = 0
KHO1 122200Z 29012KT 17/M08 A3009 RMK A01 T01681083  RH  017%=      5-min Rain = 0
KHO1 122201Z 28011KT 17/M08 A3009 RMK A01 T01671083  RH  017%=      5-min Rain = 0
KHO1 122202Z 30009KT 17/M08 A3009 RMK A01 T01671082  RH  017%=      5-min Rain = 0
KHO1 122203Z 29007KT 17/M08 A3009 RMK A01 T01681081  RH  017%=      5-min Rain = 0
KHO1 122204Z 28008KT 17/M08 A3009 RMK A01 T01701080  RH  017%=      5-min Rain = 0
KHO1 122205Z 28010KT 17/M08 A3009 RMK A01 T01711082  RH  017%=      5-min Rain = 0
KHO1 122206Z 27008KT 17/M08 A3009 RMK A01 T01711082  RH  017%=      5-min Rain = 0
KHO1 122207Z 27009KT 17/M08 A3009 RMK A01 T01701082  RH  017%=      5-min Rain = 0
KHO1 122208Z 29009KT 17/M08 A3009 RMK A01 T01711082  RH  017%=      5-min Rain = 0
KHO1 122209Z 27009KT 17/M08 A3009 RMK A01 T01711082  RH  017%=      5-min Rain = 0
KHO1 122210Z 28011KT 17/M08 A3009 RMK A01 T01711082  RH  017%=      5-min Rain = 0
KHO1 122211Z 27010KT 17/M08 A3009 RMK A01 T01711083  RH  017%=      5-min Rain = 0
KHO1 122212Z 27009KT 17/M08 A3009 RMK A01 T01701084  RH  017%=      5-min Rain = 0
KHO1 122213Z 27010KT 17/M08 A3009 RMK A01 T01711084  RH  017%=      5-min Rain = 0
KHO1 122214Z 27009KT 17/M08 A3009 RMK A01 T01721083  RH  017%=      5-min Rain = 0
KHO1 122215Z 28009KT 17/M08 A3009 RMK A01 T01721084  RH  017%=      5-min Rain = 0
KHO1 122216Z 29010KT 17/M09 A3009 RMK A01 T01731085  RH  016%=      5-min Rain = 0
KHO1 122217Z 30011KT 17/M09 A3009 RMK A01 T01731086  RH  016%=      5-min Rain = 0
KHO1 122218Z 30010KT 17/M09 A3009 RMK A01 T01731094  RH  015%=      5-min Rain = 0
KHO1 122219Z 29010KT 17/M09 A3009 RMK A01 T01741090  RH  016%=      5-min Rain = 0
KHO1 122220Z 30010KT 17/M09 A3009 RMK A01 T01741089  RH  016%=      5-min Rain = 0
KHO1 122221Z 31009KT 18/M09 A3009 RMK A01 T01761094  RH  015%=      5-min Rain = 0
KHO1 122222Z 31011KT 18/M09 A3009 RMK A01 T01761094  RH  015%=      5-min Rain = 0
KHO1 122223Z 32013KT 18/M10 A3009 RMK A01 T01761095  RH  015%=      5-min Rain = 0
KHO1 122224Z 31012KT 18/M10 A3009 RMK A01 T01761095  RH  015%=      5-min Rain = 0
KHO1 122225Z 31014KT 18/M10 A3009 RMK A01 T01761095  RH  015%=      5-min Rain = 0
KHO1 122226Z 31015KT 18/M10 A3009 RMK A01 T01761095  RH  015%=      5-min Rain = 0
KHO1 122227Z 32016KT 18/M10 A3008 RMK A01 T01751096  RH  015%=      5-min Rain = 0
KHO1 122228Z 31012KT 17/M10 A3009 RMK A01 T01741095  RH  015%=      5-min Rain = 0
KHO1 122229Z 32015KT 18/M10 A3009 RMK A01 T01751095  RH  015%=      5-min Rain = 0
KHO1 122230Z 31011KT 18/M10 A3009 RMK A01 T01751095  RH  015%=      5-min Rain = 0
KHO1 122231Z 31011KT 18/M09 A3009 RMK A01 T01751094  RH  015%=      5-min Rain = 0
KHO1 122232Z 31010KT 18/M09 A3009 RMK A01 T01751094  RH  015%=      5-min Rain = 0
KHO1 122233Z 31013G20KT 18/M09 A3009 RMK A01 T01761093  RH  015%=      5-min Rain = 0
KHO1 122234Z 31016KT 18/M10 A3009 RMK A01 T01761095  RH  015%=      5-min Rain = 0
KHO1 122235Z 33015KT 17/M10 A3009 RMK A01 T01741095  RH  015%=      5-min Rain = 0
KHO1 122236Z 33013KT 17/M10 A3009 RMK A01 T01741095  RH  015%=      5-min Rain = 0
KHO1 122237Z 33012G17KT 17/M09 A3009 RMK A01 T01741094  RH  015%=      5-min Rain = 0
KHO1 122238Z 33013G18KT 17/M09 A3009 RMK A01 T01741094  RH  015%=      5-min Rain = 0
KHO1 122239Z 33013KT 17/M09 A3009 RMK A01 T01741094  RH  015%=      5-min Rain = 0
KHO1 122240Z 32012KT 17/M09 A3009 RMK A01 T01741094  RH  015%=      5-min Rain = 0
KHO1 122241Z 32011KT 17/M10 A3009 RMK A01 T01731095  RH  015%=      5-min Rain = 0
KHO1 122242Z 31012KT 17/M10 A3009 RMK A01 T01741095  RH  015%=      5-min Rain = 0
KHO1 122243Z 31011KT 17/M09 A3009 RMK A01 T01741094  RH  015%=      5-min Rain = 0
KHO1 122244Z 31010KT 17/M09 A3009 RMK A01 T01741093  RH  015%=      5-min Rain = 0
KHO1 122245Z 32013KT 17/M10 A3009 RMK A01 T01741096  RH  015%=      5-min Rain = 0
KHO1 122246Z 31012KT 17/M10 A3009 RMK A01 T01741097  RH  015%=      5-min Rain = 0
KHO1 122247Z 31010KT 17/M10 A3009 RMK A01 T01741096  RH  015%=      5-min Rain = 0
KHO1 122248Z 31011KT 18/M10 A3009 RMK A01 T01751096  RH  015%=      5-min Rain = 0
KHO1 122249Z 31012KT 17/M10 A3009 RMK A01 T01741098  RH  015%=      5-min Rain = 0
KHO1 122250Z 30010KT 17/M10 A3009 RMK A01 T01741097  RH  015%=      5-min Rain = 0
KHO1 122251Z 32009KT 17/M10 A3009 RMK A01 T01741096  RH  015%=      5-min Rain = 0
KHO1 122252Z 31006KT 17/M09 A3009 RMK A01 T01741094  RH  015%=      5-min Rain = 0
KHO1 122253Z 30010KT 18/M10 A3009 RMK A01 T01751095  RH  015%=      5-min Rain = 0
KHO1 122254Z 30011KT 17/M10 A3009 RMK A01 T01741096  RH  015%=      5-min Rain = 0
KHO1 122255Z 31011KT 17/M10 A3009 RMK A01 T01741096  RH  015%=      5-min Rain = 0
KHO1 122256Z 31012KT 17/M10 A3009 RMK A01 T01731097  RH  015%=      5-min Rain = 0
KHO1 122257Z 30010KT 17/M10 A3009 RMK A01 T01721097  RH  015%=      5-min Rain = 0
KHO1 122258Z 30009KT 17/M10 A3009 RMK A01 T01721096  RH  015%=      5-min Rain = 0
KHO1 122259Z 30008KT 17/M10 A3009 RMK A01 T01721095  RH  015%=      5-min Rain = 0
KHO1 122300Z 30010KT 17/M10 A3009 RMK A01 T01731096  RH  015%=      5-min Rain = 0
KHO1 122301Z 30009KT 17/M10 A301 RMK A01 T01721095  RH  015%=      5-min Rain = 0
KHO1 122302Z 30009KT 17/M10 A301 RMK A01 T01721095  RH  015%=      5-min Rain = 0
KHO1 122303Z 31008KT 17/M10 A3009 RMK A01 T01721095  RH  015%=      5-min Rain = 0
KHO1 122304Z 31010KT 17/M10 A3009 RMK A01 T01721096  RH  015%=      5-min Rain = 0
KHO1 122305Z 30009KT 17/M10 A301 RMK A01 T01721096  RH  015%=      5-min Rain = 0
KHO1 122306Z 30008KT 17/M10 A301 RMK A01 T01711096  RH  015%=      5-min Rain = 0
KHO1 122307Z 31007KT 17/M10 A301 RMK A01 T01711095  RH  015%=      5-min Rain = 0
KHO1 122308Z 30006KT 17/M09 A301 RMK A01 T01721093  RH  015%=      5-min Rain = 0
KHO1 122309Z 30007KT 17/M09 A301 RMK A01 T01721094  RH  015%=      5-min Rain = 0
KHO1 122310Z 30007KT 17/M10 A301 RMK A01 T01721095  RH  015%=      5-min Rain = 0
KHO1 122311Z 31007KT 17/M09 A301 RMK A01 T01711094  RH  015%=      5-min Rain = 0
KHO1 122312Z 31009KT 17/M09 A301 RMK A01 T01711094  RH  015%=      5-min Rain = 0
KHO1 122313Z 31009KT 17/M09 A301 RMK A01 T01701093  RH  016%=      5-min Rain = 0
KHO1 122314Z 31009KT 17/M09 A301 RMK A01 T01701093  RH  016%=      5-min Rain = 0
KHO1 122315Z 31007KT 17/M09 A301 RMK A01 T01691091  RH  016%=      5-min Rain = 0
KHO1 122316Z 31007KT 17/M09 A301 RMK A01 T01691090  RH  016%=      5-min Rain = 0
KHO1 122317Z 31009KT 17/M09 A301 RMK A01 T01681091  RH  016%=      5-min Rain = 0
KHO1 122318Z 31008KT 17/M09 A301 RMK A01 T01681091  RH  016%=      5-min Rain = 0
KHO1 122319Z 31007KT 17/M09 A301 RMK A01 T01671090  RH  016%=      5-min Rain = 0
KHO1 122320Z 31008KT 17/M09 A301 RMK A01 T01671089  RH  016%=      5-min Rain = 0
KHO1 122321Z 31008KT 17/M09 A301 RMK A01 T01671088  RH  017%=      5-min Rain = 0
KHO1 122322Z 31009KT 17/M09 A301 RMK A01 T01661087  RH  017%=      5-min Rain = 0
KHO1 122323Z 31008KT 17/M09 A301 RMK A01 T01661088  RH  017%=      5-min Rain = 0
KHO1 122324Z 31009KT 17/M09 A301 RMK A01 T01651088  RH  017%=      5-min Rain = 0
KHO1 122325Z 30009KT 17/M09 A3011 RMK A01 T01651088  RH  017%=      5-min Rain = 0
KHO1 122326Z 30009KT 17/M09 A3011 RMK A01 T01651088  RH  017%=      5-min Rain = 0
KHO1 122327Z 30008KT 16/M09 A3011 RMK A01 T01641088  RH  017%=      5-min Rain = 0
KHO1 122328Z 30008KT 16/M09 A3011 RMK A01 T01641087  RH  017%=      5-min Rain = 0
KHO1 122329Z 30009KT 16/M09 A3011 RMK A01 T01641087  RH  017%=      5-min Rain = 0
KHO1 122330Z 30008KT 16/M09 A3011 RMK A01 T01631087  RH  017%=      5-min Rain = 0
KHO1 122331Z 30007KT 16/M09 A3011 RMK A01 T01631087  RH  017%=      5-min Rain = 0
KHO1 122332Z 30007KT 16/M09 A3011 RMK A01 T01621086  RH  017%=      5-min Rain = 0
KHO1 122333Z 30007KT 16/M09 A3011 RMK A01 T01621086  RH  017%=      5-min Rain = 0
KHO1 122334Z 30008KT 16/M09 A3011 RMK A01 T01611086  RH  017%=      5-min Rain = 0
KHO1 122335Z 30008KT 16/M09 A3011 RMK A01 T01611087  RH  017%=      5-min Rain = 0
KHO1 122336Z 30007KT 16/M09 A3011 RMK A01 T01611087  RH  017%=      5-min Rain = 0
KHO1 122337Z 29006KT 16/M09 A3011 RMK A01 T01611087  RH  017%=      5-min Rain = 0
KHO1 122338Z 30006KT 16/M09 A3011 RMK A01 T01601086  RH  018%=      5-min Rain = 0
KHO1 122339Z 29006KT 16/M09 A3011 RMK A01 T01601086  RH  018%=      5-min Rain = 0
KHO1 122340Z 29007KT 16/M09 A3011 RMK A01 T01591086  RH  018%=      5-min Rain = 0
KHO1 122341Z 30006KT 16/M09 A3011 RMK A01 T01591086  RH  018%=      5-min Rain = 0
KHO1 122342Z 29006KT 16/M09 A3011 RMK A01 T01581086  RH  018%=      5-min Rain = 0
KHO1 122343Z 29005KT 16/M09 A3011 RMK A01 T01581086  RH  018%=      5-min Rain = 0
KHO1 122344Z 29005KT 16/M09 A3011 RMK A01 T01571086  RH  018%=      5-min Rain = 0
KHO1 122345Z 30005KT 16/M09 A3011 RMK A01 T01561086  RH  018%=      5-min Rain = 0
KHO1 122346Z 29005KT 16/M09 A3011 RMK A01 T01561086  RH  018%=      5-min Rain = 0
KHO1 122347Z 29006KT 16/M09 A3011 RMK A01 T01551086  RH  018%=      5-min Rain = 0
KHO1 122348Z 29005KT 15/M09 A3011 RMK A01 T01541086  RH  018%=      5-min Rain = 0
KHO1 122349Z 29006KT 15/M09 A3011 RMK A01 T01531086  RH  018%=      5-min Rain = 0
KHO1 122350Z 29006KT 15/M09 A3011 RMK A01 T01521086  RH  019%=      5-min Rain = 0
KHO1 122351Z 29005KT 15/M09 A3011 RMK A01 T01511086  RH  019%=      5-min Rain = 0
KHO1 122352Z 28005KT 15/M09 A3011 RMK A01 T01501087  RH  019%=      5-min Rain = 0
KHO1 122353Z 29005KT 15/M09 A3011 RMK A01 T01501086  RH  019%=      5-min Rain = 0
KHO1 122354Z 29005KT 15/M09 A3011 RMK A01 T01491086  RH  019%=      5-min Rain = 0
KHO1 122355Z 29005KT 15/M09 A3011 RMK A01 T01481086  RH  019%=      5-min Rain = 0
KHO1 122356Z 29005KT 15/M09 A3012 RMK A01 T01481086  RH  019%=      5-min Rain = 0
KHO1 122357Z 29005KT 15/M09 A3012 RMK A01 T01471086  RH  019%=      5-min Rain = 0
KHO1 122358Z 29006KT 15/M09 A3011 RMK A01 T01461086  RH  019%=      5-min Rain = 0
KHO1 122359Z 29006KT 15/M09 A3012 RMK A01 T01451086  RH  019%=      5-min Rain = 0
KHO1 130000Z 29006KT 14/M09 A3012 RMK A01 T01441086  RH  020%=      5-min Rain = 0
KHO1 130001Z 29006KT 14/M09 A3012 RMK A01 T01431086  RH  020%=      5-min Rain = 0
KHO1 130002Z 29007KT 14/M09 A3012 RMK A01 T01411085  RH  020%=      5-min Rain = 0
KHO1 130003Z 29007KT 14/M09 A3012 RMK A01 T01401085  RH  020%=      5-min Rain = 0
KHO1 130004Z 29008KT 14/M09 A3012 RMK A01 T01391085  RH  020%=      5-min Rain = 0
KHO1 130005Z 29008KT 14/M09 A3012 RMK A01 T01381085  RH  020%=      5-min Rain = 0
KHO1 130006Z 29008KT 14/M09 A3012 RMK A01 T01371085  RH  021%=      5-min Rain = 0
KHO1 130007Z 29008KT 14/M09 A3012 RMK A01 T01351085  RH  021%=      5-min Rain = 0
KHO1 130008Z 29008KT 13/M09 A3012 RMK A01 T01341085  RH  021%=      5-min Rain = 0
KHO1 130009Z 29008KT 13/M08 A3012 RMK A01 T01331084  RH  021%=      5-min Rain = 0
KHO1 130010Z 29008KT 13/M08 A3012 RMK A01 T01331084  RH  021%=      5-min Rain = 0
KHO1 130011Z 29008KT 13/M08 A3012 RMK A01 T01321084  RH  021%=      5-min Rain = 0
KHO1 130012Z 29008KT 13/M08 A3012 RMK A01 T01321084  RH  021%=      5-min Rain = 0
KHO1 130013Z 29008KT 13/M08 A3012 RMK A01 T01321084  RH  021%=      5-min Rain = 0
KHO1 130014Z 29008KT 13/M08 A3013 RMK A01 T01311084  RH  022%=      5-min Rain = 0
KHO1 130015Z 29007KT 13/M08 A3013 RMK A01 T01311084  RH  022%=      5-min Rain = 0
KHO1 130016Z 30007KT 13/M08 A3012 RMK A01 T01301084  RH  022%=      5-min Rain = 0
KHO1 130017Z 29007KT 13/M08 A3013 RMK A01 T01301084  RH  022%=      5-min Rain = 0
KHO1 130018Z 30007KT 13/M09 A3013 RMK A01 T01291085  RH  022%=      5-min Rain = 0
KHO1 130019Z 30007KT 13/M09 A3013 RMK A01 T01281085  RH  022%=      5-min Rain = 0
KHO1 130020Z 29007KT 13/M09 A3013 RMK A01 T01281085  RH  022%=      5-min Rain = 0
KHO1 130021Z 27008KT 13/M09 A3013 RMK A01 T01261085  RH  022%=      5-min Rain = 0
KHO1 130022Z 26008KT 12/M09 A3013 RMK A01 T01231087  RH  022%=      5-min Rain = 0
KHO1 130023Z 27008KT 12/M09 A3013 RMK A01 T01191088  RH  023%=      5-min Rain = 0
KHO1 130024Z 26007KT 12/M09 A3013 RMK A01 T01161087  RH  023%=      5-min Rain = 0
KHO1 130025Z 26007KT 12/M09 A3013 RMK A01 T01161085  RH  024%=      5-min Rain = 0
KHO1 130026Z 27007KT 12/M09 A3013 RMK A01 T01171085  RH  024%=      5-min Rain = 0
KHO1 130027Z 26006KT 12/M09 A3013 RMK A01 T01161086  RH  024%=      5-min Rain = 0
KHO1 130028Z 26006KT 12/M09 A3013 RMK A01 T01151085  RH  024%=      5-min Rain = 0
KHO1 130029Z 26006KT 12/M09 A3013 RMK A01 T01151085  RH  024%=      5-min Rain = 0
KHO1 130030Z 26006KT 11/M09 A3013 RMK A01 T01141085  RH  024%=      5-min Rain = 0
KHO1 130031Z 26006KT 11/M09 A3013 RMK A01 T01131086  RH  024%=      5-min Rain = 0
KHO1 130032Z 26007KT 11/M09 A3014 RMK A01 T01111085  RH  024%=      5-min Rain = 0
KHO1 130033Z 26007KT 11/M08 A3014 RMK A01 T01121083  RH  025%=      5-min Rain = 0
KHO1 130034Z 26008KT 11/M08 A3014 RMK A01 T01131082  RH  025%=      5-min Rain = 0
KHO1 130035Z 25008KT 11/M08 A3014 RMK A01 T01141081  RH  025%=      5-min Rain = 0
KHO1 130036Z 25008KT 12/M08 A3014 RMK A01 T01151081  RH  024%=      5-min Rain = 0
KHO1 130037Z 25008KT 11/M08 A3014 RMK A01 T01141082  RH  024%=      5-min Rain = 0
KHO1 130038Z 26009KT 11/M08 A3014 RMK A01 T01131082  RH  025%=      5-min Rain = 0
KHO1 130039Z 27008KT 11/M08 A3014 RMK A01 T01131081  RH  025%=      5-min Rain = 0
KHO1 130040Z 27008KT 11/M08 A3014 RMK A01 T01131081  RH  025%=      5-min Rain = 0
KHO1 130041Z 26007KT 11/M08 A3014 RMK A01 T01121082  RH  025%=      5-min Rain = 0
KHO1 130042Z 25007KT 11/M08 A3014 RMK A01 T01111082  RH  025%=      5-min Rain = 0
KHO1 130043Z 25008KT 11/M08 A3014 RMK A01 T01111082  RH  025%=      5-min Rain = 0
KHO1 130044Z 25008KT 11/M08 A3014 RMK A01 T01091083  RH  025%=      5-min Rain = 0
KHO1 130045Z 26008KT 11/M08 A3014 RMK A01 T01081083  RH  025%=      5-min Rain = 0
KHO1 130046Z 27008KT 11/M08 A3014 RMK A01 T01071083  RH  026%=      5-min Rain = 0
KHO1 130047Z 26007KT 11/M08 A3014 RMK A01 T01071083  RH  026%=      5-min Rain = 0
KHO1 130048Z 26007KT 11/M08 A3014 RMK A01 T01071082  RH  026%=      5-min Rain = 0
KHO1 130049Z 26008KT 11/M08 A3014 RMK A01 T01081082  RH  025%=      5-min Rain = 0
KHO1 130050Z 26008KT 11/M08 A3014 RMK A01 T01091083  RH  025%=      5-min Rain = 0
KHO1 130051Z 26007KT 11/M08 A3014 RMK A01 T01091083  RH  025%=      5-min Rain = 0
KHO1 130052Z 26007KT 11/M08 A3014 RMK A01 T01091083  RH  025%=      5-min Rain = 0
KHO1 130053Z 26007KT 11/M08 A3014 RMK A01 T01091084  RH  025%=      5-min Rain = 0
KHO1 130054Z 26008KT 11/M08 A3014 RMK A01 T01081084  RH  025%=      5-min Rain = 0
KHO1 130055Z 27007KT 11/M08 A3015 RMK A01 T01071084  RH  025%=      5-min Rain = 0
KHO1 130056Z 27007KT 11/M09 A3015 RMK A01 T01061085  RH  025%=      5-min Rain = 0
KHO1 130057Z 27007KT 10/M09 A3015 RMK A01 T01041085  RH  026%=      5-min Rain = 0
KHO1 130058Z 27007KT 10/M09 A3015 RMK A01 T01031085  RH  026%=      5-min Rain = 0
KHO1 130059Z 27007KT 10/M09 A3015 RMK A01 T01021085  RH  026%=      5-min Rain = 0
KHO1 130100Z 27007KT 10/M09 A3015 RMK A01 T01011086  RH  026%=      5-min Rain = 0
KHO1 130101Z 26007KT 10/M09 A3015 RMK A01 T00991086  RH  026%=      5-min Rain = 0
KHO1 130102Z 27008KT 10/M09 A3015 RMK A01 T00981086  RH  027%=      5-min Rain = 0
KHO1 130103Z 26008KT 10/M09 A3015 RMK A01 T00971086  RH  027%=      5-min Rain = 0
KHO1 130104Z 27007KT 10/M09 A3015 RMK A01 T00971086  RH  027%=      5-min Rain = 0
KHO1 130105Z 27008KT 10/M09 A3015 RMK A01 T00961086  RH  027%=      5-min Rain = 0
KHO1 130106Z 27008KT 10/M09 A3015 RMK A01 T00971086  RH  027%=      5-min Rain = 0
KHO1 130107Z 27008KT 10/M09 A3015 RMK A01 T00971086  RH  027%=      5-min Rain = 0
KHO1 130108Z 27009KT 10/M09 A3015 RMK A01 T00971086  RH  027%=      5-min Rain = 0
KHO1 130109Z 27008KT 10/M09 A3015 RMK A01 T00971087  RH  026%=      5-min Rain = 0
KHO1 130110Z 27008KT 10/M09 A3015 RMK A01 T00961087  RH  026%=      5-min Rain = 0
KHO1 130111Z 27008KT 10/M09 A3015 RMK A01 T00961087  RH  027%=      5-min Rain = 0
KHO1 130112Z 27008KT 10/M09 A3015 RMK A01 T00951087  RH  027%=      5-min Rain = 0
KHO1 130113Z 27008KT 09/M09 A3015 RMK A01 T00941088  RH  027%=      5-min Rain = 0
KHO1 130114Z 27008KT 09/M09 A3015 RMK A01 T00931088  RH  027%=      5-min Rain = 0
KHO1 130115Z 27008KT 09/M09 A3015 RMK A01 T00921088  RH  027%=      5-min Rain = 0
KHO1 130116Z 27008KT 09/M09 A3015 RMK A01 T00911088  RH  027%=      5-min Rain = 0
KHO1 130117Z 28008KT 09/M09 A3016 RMK A01 T00901089  RH  027%=      5-min Rain = 0
KHO1 130118Z 28008KT 09/M09 A3016 RMK A01 T00891089  RH  028%=      5-min Rain = 0
KHO1 130119Z 28008KT 09/M09 A3016 RMK A01 T00881089  RH  028%=      5-min Rain = 0
KHO1 130120Z 28009KT 09/M09 A3016 RMK A01 T00871089  RH  028%=      5-min Rain = 0
KHO1 130121Z 28009KT 09/M09 A3016 RMK A01 T00861089  RH  028%=      5-min Rain = 0
KHO1 130122Z 28009KT 09/M09 A3016 RMK A01 T00861088  RH  028%=      5-min Rain = 0
KHO1 130123Z 28009KT 09/M09 A3016 RMK A01 T00871088  RH  028%=      5-min Rain = 0
KHO1 130124Z 28009KT 09/M09 A3016 RMK A01 T00871088  RH  028%=      5-min Rain = 0
KHO1 130125Z 28009KT 09/M09 A3016 RMK A01 T00881088  RH  028%=      5-min Rain = 0
KHO1 130126Z 28009KT 09/M09 A3016 RMK A01 T00881088  RH  028%=      5-min Rain = 0
KHO1 130127Z 28008KT 09/M09 A3016 RMK A01 T00891089  RH  028%=      5-min Rain = 0
KHO1 130128Z 28009KT 09/M09 A3016 RMK A01 T00891089  RH  027%=      5-min Rain = 0
KHO1 130129Z 28009KT 09/M09 A3016 RMK A01 T00891089  RH  027%=      5-min Rain = 0
KHO1 130130Z 28009KT 09/M09 A3016 RMK A01 T00891089  RH  027%=      5-min Rain = 0
KHO1 130131Z 28009KT 09/M09 A3016 RMK A01 T00891090  RH  027%=      5-min Rain = 0
KHO1 130132Z 28009KT 09/M09 A3017 RMK A01 T00891090  RH  027%=      5-min Rain = 0
KHO1 130133Z 28008KT 09/M09 A3017 RMK A01 T00901090  RH  027%=      5-min Rain = 0
KHO1 130134Z 29007KT 09/M09 A3017 RMK A01 T00911090  RH  027%=      5-min Rain = 0
KHO1 130135Z 29007KT 09/M09 A3017 RMK A01 T00911090  RH  027%=      5-min Rain = 0
KHO1 130136Z 28007KT 09/M09 A3017 RMK A01 T00901090  RH  027%=      5-min Rain = 0
KHO1 130137Z 29007KT 09/M09 A3017 RMK A01 T00881091  RH  027%=      5-min Rain = 0
KHO1 130138Z 28008KT 09/M09 A3017 RMK A01 T00871091  RH  028%=      5-min Rain = 0
KHO1 130139Z 28008KT 09/M09 A3017 RMK A01 T00861091  RH  028%=      5-min Rain = 0
KHO1 130140Z 28007KT 09/M09 A3017 RMK A01 T00861091  RH  028%=      5-min Rain = 0
KHO1 130141Z 29007KT 09/M09 A3017 RMK A01 T00861091  RH  028%=      5-min Rain = 0
KHO1 130142Z 29007KT 09/M09 A3017 RMK A01 T00851091  RH  028%=      5-min Rain = 0
KHO1 130143Z 29007KT 08/M09 A3017 RMK A01 T00831091  RH  028%=      5-min Rain = 0
KHO1 130144Z 29007KT 08/M09 A3017 RMK A01 T00821091  RH  028%=      5-min Rain = 0
KHO1 130145Z 28007KT 08/M09 A3017 RMK A01 T00811091  RH  028%=      5-min Rain = 0
KHO1 130146Z 28007KT 08/M09 A3017 RMK A01 T00801091  RH  029%=      5-min Rain = 0
KHO1 130147Z 28007KT 08/M09 A3018 RMK A01 T00811091  RH  029%=      5-min Rain = 0
KHO1 130148Z 28006KT 08/M09 A3018 RMK A01 T00811091  RH  029%=      5-min Rain = 0
KHO1 130149Z 29006KT 08/M09 A3018 RMK A01 T00801092  RH  029%=      5-min Rain = 0
KHO1 130150Z 29007KT 08/M09 A3018 RMK A01 T00781092  RH  029%=      5-min Rain = 0
KHO1 130151Z 29008KT 08/M09 A3018 RMK A01 T00761092  RH  029%=      5-min Rain = 0
KHO1 130152Z 29007KT 07/M09 A3018 RMK A01 T00741092  RH  029%=      5-min Rain = 0
KHO1 130153Z 29007KT 07/M09 A3018 RMK A01 T00731093  RH  030%=      5-min Rain = 0
KHO1 130154Z 28007KT 07/M09 A3018 RMK A01 T00731092  RH  030%=      5-min Rain = 0
KHO1 130155Z 28007KT 07/M09 A3018 RMK A01 T00731092  RH  030%=      5-min Rain = 0
KHO1 130156Z 28007KT 07/M09 A3018 RMK A01 T00741092  RH  030%=      5-min Rain = 0
KHO1 130157Z 29006KT 07/M09 A3018 RMK A01 T00741092  RH  030%=      5-min Rain = 0
KHO1 130158Z 30007KT 07/M09 A3018 RMK A01 T00731092  RH  030%=      5-min Rain = 0
KHO1 130159Z 29007KT 07/M09 A3018 RMK A01 T00721093  RH  030%=      5-min Rain = 0
KHO1 130200Z 29007KT 07/M09 A3019 RMK A01 T00701093  RH  030%=      5-min Rain = 0
KHO1 130201Z 29006KT 07/M09 A3019 RMK A01 T00701092  RH  030%=      5-min Rain = 0
KHO1 130202Z 29006KT 07/M09 A3019 RMK A01 T00701092  RH  031%=      5-min Rain = 0
KHO1 130203Z 30007KT 07/M09 A3019 RMK A01 T00691092  RH  031%=      5-min Rain = 0
KHO1 130204Z 30006KT 07/M09 A3019 RMK A01 T00681092  RH  031%=      5-min Rain = 0
KHO1 130205Z 31006KT 07/M09 A3019 RMK A01 T00681092  RH  031%=      5-min Rain = 0
KHO1 130206Z 31006KT 07/M09 A3019 RMK A01 T00681091  RH  031%=      5-min Rain = 0
KHO1 130207Z 32005KT 07/M09 A3019 RMK A01 T00691091  RH  031%=      5-min Rain = 0
KHO1 130208Z 33005KT 07/M09 A3019 RMK A01 T00701090  RH  031%=      5-min Rain = 0
KHO1 130209Z 35004KT 07/M09 A3019 RMK A01 T00721089  RH  031%=      5-min Rain = 0
KHO1 130210Z 03003KT 07/M09 A3019 RMK A01 T00741089  RH  030%=      5-min Rain = 0
KHO1 130211Z 04005KT 07/M09 A3019 RMK A01 T00731090  RH  030%=      5-min Rain = 0
KHO1 130212Z 04006KT 07/M09 A3019 RMK A01 T00701092  RH  031%=      5-min Rain = 0
KHO1 130213Z 03006KT 07/M09 A3019 RMK A01 T00671092  RH  031%=      5-min Rain = 0
KHO1 130214Z 03007KT 07/M09 A302 RMK A01 T00651092  RH  031%=      5-min Rain = 0
KHO1 130215Z 03007KT 06/M09 A302 RMK A01 T00641092  RH  032%=      5-min Rain = 0
KHO1 130216Z 03006KT 06/M09 A302 RMK A01 T00641090  RH  032%=      5-min Rain = 0
KHO1 130217Z 03005KT 07/M09 A302 RMK A01 T00671089  RH  032%=      5-min Rain = 0
KHO1 130218Z 02004KT 07/M09 A302 RMK A01 T00701089  RH  031%=      5-min Rain = 0
KHO1 130219Z 01003KT 07/M09 A302 RMK A01 T00731089  RH  031%=      5-min Rain = 0
KHO1 130220Z 02004KT 07/M09 A302 RMK A01 T00741089  RH  030%=      5-min Rain = 0
KHO1 130221Z 03004KT 08/M09 A302 RMK A01 T00751088  RH  030%=      5-min Rain = 0
KHO1 130222Z 00004KT 08/M09 A302 RMK A01 T00761088  RH  030%=      5-min Rain = 0
KHO1 130223Z 00004KT 08/M09 A302 RMK A01 T00761088  RH  030%=      5-min Rain = 0
KHO1 130224Z 00004KT 08/M09 A302 RMK A01 T00761089  RH  030%=      5-min Rain = 0
KHO1 130225Z 01003KT 08/M09 A302 RMK A01 T00781088  RH  030%=      5-min Rain = 0
KHO1 130226Z 03004KT 08/M09 A302 RMK A01 T00791088  RH  030%=      5-min Rain = 0
KHO1 130227Z 04005KT 08/M09 A302 RMK A01 T00791089  RH  029%=      5-min Rain = 0
KHO1 130228Z 05004KT 08/M09 A302 RMK A01 T00771089  RH  030%=      5-min Rain = 0
KHO1 130229Z 06003KT 08/M09 A302 RMK A01 T00751089  RH  030%=      5-min Rain = 0
KHO1 130230Z 06003KT 07/M09 A302 RMK A01 T00741089  RH  030%=      5-min Rain = 0
KHO1 130231Z 06003KT 07/M09 A302 RMK A01 T00731088  RH  031%=      5-min Rain = 0
KHO1 130232Z 05003KT 07/M09 A302 RMK A01 T00731087  RH  031%=      5-min Rain = 0
KHO1 130233Z 05004KT 07/M09 A302 RMK A01 T00721087  RH  031%=      5-min Rain = 0
KHO1 130234Z 05004KT 07/M09 A302 RMK A01 T00711088  RH  031%=      5-min Rain = 0
KHO1 130235Z 05005KT 07/M09 A302 RMK A01 T00681089  RH  032%=      5-min Rain = 0
KHO1 130236Z 07004KT 07/M09 A302 RMK A01 T00661087  RH  033%=      5-min Rain = 0
KHO1 130237Z 07004KT 07/M09 A302 RMK A01 T00651087  RH  033%=      5-min Rain = 0
KHO1 130238Z 07004KT 06/M09 A302 RMK A01 T00641088  RH  033%=      5-min Rain = 0
KHO1 130239Z 08005KT 06/M09 A302 RMK A01 T00631088  RH  033%=      5-min Rain = 0
KHO1 130240Z 08004KT 06/M09 A302 RMK A01 T00621088  RH  033%=      5-min Rain = 0
KHO1 130241Z 08004KT 06/M09 A302 RMK A01 T00611088  RH  034%=      5-min Rain = 0
KHO1 130242Z 08004KT 06/M09 A302 RMK A01 T00601087  RH  034%=      5-min Rain = 0
KHO1 130243Z 09004KT 06/M09 A302 RMK A01 T00591087  RH  034%=      5-min Rain = 0
KHO1 130244Z 09006KT 06/M09 A302 RMK A01 T00581086  RH  035%=      5-min Rain = 0
KHO1 130245Z 10008KT 06/M08 A302 RMK A01 T00581084  RH  035%=      5-min Rain = 0
KHO1 130246Z 10006KT 06/M08 A302 RMK A01 T00591084  RH  035%=      5-min Rain = 0
KHO1 130247Z 10005KT 06/M09 A302 RMK A01 T00601085  RH  035%=      5-min Rain = 0
KHO1 130248Z 11006KT 06/M09 A302 RMK A01 T00591086  RH  034%=      5-min Rain = 0
KHO1 130249Z 11005KT 06/M09 A302 RMK A01 T00581087  RH  034%=      5-min Rain = 0
KHO1 130250Z 12005KT 06/M09 A302 RMK A01 T00581087  RH  035%=      5-min Rain = 0
KHO1 130251Z 12004KT 06/M09 A302 RMK A01 T00571086  RH  035%=      5-min Rain = 0
KHO1 130252Z 11003KT 06/M09 A302 RMK A01 T00561086  RH  035%=      5-min Rain = 0
KHO1 130253Z 11003KT 06/M09 A302 RMK A01 T00561085  RH  036%=      5-min Rain = 0
KHO1 130254Z 12003KT 06/M09 A302 RMK A01 T00561085  RH  036%=      5-min Rain = 0
KHO1 130255Z 12002KT 06/M09 A302 RMK A01 T00561085  RH  036%=      5-min Rain = 0
KHO1 130256Z 11003KT 06/M09 A3021 RMK A01 T00561085  RH  036%=      5-min Rain = 0
KHO1 130257Z 10003KT 06/M08 A3021 RMK A01 T00551084  RH  036%=      5-min Rain = 0
KHO1 130258Z 09003KT 06/M08 A3021 RMK A01 T00551084  RH  036%=      5-min Rain = 0
KHO1 130259Z 09003KT 06/M08 A3021 RMK A01 T00551084  RH  036%=      5-min Rain = 0
KHO1 130300Z 09003KT 06/M08 A3021 RMK A01 T00551084  RH  036%=      5-min Rain = 0
KHO1 130301Z 09003KT 06/M08 A3021 RMK A01 T00551083  RH  036%=      5-min Rain = 0
KHO1 130302Z 09002KT 06/M08 A3021 RMK A01 T00561083  RH  036%=      5-min Rain = 0
KHO1 130303Z 08002KT 06/M08 A3021 RMK A01 T00561083  RH  036%=      5-min Rain = 0
KHO1 130304Z 09003KT 06/M08 A3021 RMK A01 T00551084  RH  036%=      5-min Rain = 0
KHO1 130305Z 10005KT 06/M08 A3022 RMK A01 T00551084  RH  036%=      5-min Rain = 0
KHO1 130306Z 10005KT 05/M09 A3022 RMK A01 T00541085  RH  036%=      5-min Rain = 0
KHO1 130307Z 10005KT 05/M09 A3022 RMK A01 T00521085  RH  036%=      5-min Rain = 0
KHO1 130308Z 10005KT 05/M09 A3022 RMK A01 T00511085  RH  037%=      5-min Rain = 0
KHO1 130309Z 10005KT 05/M08 A3022 RMK A01 T00501084  RH  037%=      5-min Rain = 0
KHO1 130310Z 10004KT 05/M08 A3022 RMK A01 T00491084  RH  037%=      5-min Rain = 0
KHO1 130311Z 09003KT 05/M08 A3022 RMK A01 T00491084  RH  038%=      5-min Rain = 0
KHO1 130312Z 08003KT 05/M08 A3022 RMK A01 T00481084  RH  038%=      5-min Rain = 0
KHO1 130313Z 08003KT 05/M08 A3022 RMK A01 T00471083  RH  038%=      5-min Rain = 0
KHO1 130314Z 09004KT 05/M08 A3022 RMK A01 T00471082  RH  039%=      5-min Rain = 0
KHO1 130315Z 09003KT 05/M08 A3022 RMK A01 T00471082  RH  039%=      5-min Rain = 0
KHO1 130316Z 09003KT 05/M08 A3022 RMK A01 T00461081  RH  039%=      5-min Rain = 0
KHO1 130317Z 09004KT 05/M08 A3022 RMK A01 T00461080  RH  040%=      5-min Rain = 0
KHO1 130318Z 10003KT 05/M08 A3022 RMK A01 T00461079  RH  040%=      5-min Rain = 0
KHO1 130319Z 10005KT 05/M08 A3022 RMK A01 T00461080  RH  040%=      5-min Rain = 0
KHO1 130320Z 11005KT 05/M08 A3022 RMK A01 T00461080  RH  039%=      5-min Rain = 0
KHO1 130321Z 11005KT 05/M08 A3022 RMK A01 T00471081  RH  039%=      5-min Rain = 0
KHO1 130322Z 12004KT 05/M08 A3022 RMK A01 T00461082  RH  039%=      5-min Rain = 0
KHO1 130323Z 12003KT 05/M08 A3022 RMK A01 T00461083  RH  039%=      5-min Rain = 0
KHO1 130324Z 12002KT 04/M08 A3023 RMK A01 T00441083  RH  039%=      5-min Rain = 0
KHO1 130325Z 11002KT 04/M08 A3023 RMK A01 T00441081  RH  040%=      5-min Rain = 0
KHO1 130326Z 10002KT 04/M08 A3023 RMK A01 T00441081  RH  040%=      5-min Rain = 0
KHO1 130327Z 10003KT 04/M08 A3023 RMK A01 T00441081  RH  040%=      5-min Rain = 0
KHO1 130328Z 10004KT 04/M08 A3023 RMK A01 T00441081  RH  040%=      5-min Rain = 0
KHO1 130329Z 11005KT 04/M08 A3023 RMK A01 T00441080  RH  040%=      5-min Rain = 0
KHO1 130330Z 11006KT 05/M08 A3023 RMK A01 T00451079  RH  040%=      5-min Rain = 0
KHO1 130331Z 11006KT 05/M08 A3023 RMK A01 T00461080  RH  040%=      5-min Rain = 0
KHO1 130332Z 11005KT 05/M08 A3023 RMK A01 T00461080  RH  040%=      5-min Rain = 0
KHO1 130333Z 11005KT 05/M08 A3024 RMK A01 T00461079  RH  040%=      5-min Rain = 0
KHO1 130334Z 10005KT 05/M08 A3024 RMK A01 T00461079  RH  040%=      5-min Rain = 0
KHO1 130335Z 10005KT 05/M08 A3024 RMK A01 T00461079  RH  040%=      5-min Rain = 0
KHO1 130336Z 09005KT 05/M08 A3024 RMK A01 T00451079  RH  040%=      5-min Rain = 0
KHO1 130337Z 09004KT 05/M08 A3024 RMK A01 T00451079  RH  040%=      5-min Rain = 0
KHO1 130338Z 09006KT 05/M08 A3024 RMK A01 T00451079  RH  040%=      5-min Rain = 0
KHO1 130339Z 09005KT 05/M08 A3024 RMK A01 T00451079  RH  040%=      5-min Rain = 0
KHO1 130340Z 09004KT 05/M08 A3024 RMK A01 T00451079  RH  040%=      5-min Rain = 0
KHO1 130341Z 09004KT 05/M08 A3024 RMK A01 T00451079  RH  040%=      5-min Rain = 0
KHO1 130342Z 09004KT 05/M08 A3025 RMK A01 T00451080  RH  040%=      5-min Rain = 0
KHO1 130343Z 08004KT 04/M08 A3025 RMK A01 T00441081  RH  040%=      5-min Rain = 0
KHO1 130344Z 08004KT 04/M08 A3025 RMK A01 T00431082  RH  040%=      5-min Rain = 0
KHO1 130345Z 08004KT 04/M08 A3025 RMK A01 T00411082  RH  040%=      5-min Rain = 0
KHO1 130346Z 09004KT 04/M08 A3025 RMK A01 T00401083  RH  040%=      5-min Rain = 0
KHO1 130347Z 08005KT 04/M08 A3025 RMK A01 T00391082  RH  041%=      5-min Rain = 0
KHO1 130348Z 07005KT 04/M08 A3025 RMK A01 T00391082  RH  041%=      5-min Rain = 0
KHO1 130349Z 07005KT 04/M08 A3025 RMK A01 T00381083  RH  041%=      5-min Rain = 0
KHO1 130350Z 07005KT 04/M08 A3025 RMK A01 T00381083  RH  041%=      5-min Rain = 0
KHO1 130351Z 07005KT 04/M08 A3025 RMK A01 T00371083  RH  041%=      5-min Rain = 0
KHO1 130352Z 08006KT 04/M08 A3025 RMK A01 T00371083  RH  041%=      5-min Rain = 0
KHO1 130353Z 09006KT 04/M08 A3025 RMK A01 T00361083  RH  041%=      5-min Rain = 0
KHO1 130354Z 09006KT 04/M08 A3025 RMK A01 T00361082  RH  042%=      5-min Rain = 0
KHO1 130355Z 09007KT 04/M08 A3025 RMK A01 T00361081  RH  042%=      5-min Rain = 0
KHO1 130356Z 09008KT 04/M08 A3025 RMK A01 T00371081  RH  042%=      5-min Rain = 0
KHO1 130357Z 10009KT 04/M08 A3025 RMK A01 T00381081  RH  041%=      5-min Rain = 0
KHO1 130358Z 10009KT 04/M08 A3025 RMK A01 T00391082  RH  041%=      5-min Rain = 0
KHO1 130359Z 09009KT 04/M08 A3025 RMK A01 T00381082  RH  041%=      5-min Rain = 0
KHO1 130400Z 09008KT 04/M08 A3026 RMK A01 T00391081  RH  041%=      5-min Rain = 0
KHO1 130401Z 09007KT 04/M08 A3026 RMK A01 T00401082  RH  041%=      5-min Rain = 0
KHO1 130402Z 09007KT 04/M08 A3026 RMK A01 T00391083  RH  041%=      5-min Rain = 0
KHO1 130403Z 09008KT 04/M08 A3025 RMK A01 T00391083  RH  041%=      5-min Rain = 0
KHO1 130404Z 10008KT 04/M08 A3025 RMK A01 T00381083  RH  041%=      5-min Rain = 0
KHO1 130405Z 10007KT 04/M08 A3025 RMK A01 T00381083  RH  041%=      5-min Rain = 0
KHO1 130406Z 10007KT 04/M08 A3025 RMK A01 T00371084  RH  041%=      5-min Rain = 0
KHO1 130407Z 10007KT 04/M08 A3025 RMK A01 T00371083  RH  041%=      5-min Rain = 0
KHO1 130408Z 10007KT 04/M08 A3025 RMK A01 T00361083  RH  041%=      5-min Rain = 0
KHO1 130409Z 11008KT 04/M08 A3025 RMK A01 T00361083  RH  041%=      5-min Rain = 0
KHO1 130410Z 12008KT 04/M08 A3025 RMK A01 T00371083  RH  041%=      5-min Rain = 0
KHO1 130411Z 12008KT 04/M08 A3025 RMK A01 T00391083  RH  041%=      5-min Rain = 0
KHO1 130412Z 12009KT 04/M08 A3025 RMK A01 T00401083  RH  040%=      5-min Rain = 0
KHO1 130413Z 11009KT 04/M08 A3025 RMK A01 T00411083  RH  040%=      5-min Rain = 0
KHO1 130414Z 11007KT 04/M08 A3025 RMK A01 T00411084  RH  040%=      5-min Rain = 0
KHO1 130415Z 11008KT 04/M09 A3025 RMK A01 T00411085  RH  040%=      5-min Rain = 0
KHO1 130416Z 11009KT 04/M09 A3025 RMK A01 T00401085  RH  040%=      5-min Rain = 0
KHO1 130417Z 11009KT 04/M09 A3025 RMK A01 T00401085  RH  040%=      5-min Rain = 0
KHO1 130418Z 10009KT 04/M09 A3025 RMK A01 T00411085  RH  039%=      5-min Rain = 0
KHO1 130419Z 11009KT 04/M09 A3026 RMK A01 T00401086  RH  039%=      5-min Rain = 0
KHO1 130420Z 10010KT 04/M09 A3026 RMK A01 T00401086  RH  039%=      5-min Rain = 0
KHO1 130421Z 10010KT 04/M09 A3026 RMK A01 T00391086  RH  040%=      5-min Rain = 0
KHO1 130422Z 10010KT 04/M09 A3026 RMK A01 T00391086  RH  040%=      5-min Rain = 0
KHO1 130423Z 10007KT 04/M09 A3026 RMK A01 T00391086  RH  040%=      5-min Rain = 0
KHO1 130424Z 10006KT 04/M09 A3026 RMK A01 T00381086  RH  040%=      5-min Rain = 0
KHO1 130425Z 10006KT 04/M09 A3026 RMK A01 T00381086  RH  040%=      5-min Rain = 0
KHO1 130426Z 10007KT 04/M09 A3026 RMK A01 T00371086  RH  040%=      5-min Rain = 0
KHO1 130427Z 10007KT 04/M09 A3026 RMK A01 T00371086  RH  040%=      5-min Rain = 0
KHO1 130428Z 10008KT 04/M09 A3026 RMK A01 T00361086  RH  040%=      5-min Rain = 0
KHO1 130429Z 10009KT 04/M09 A3026 RMK A01 T00361086  RH  041%=      5-min Rain = 0
KHO1 130430Z 10009KT 04/M09 A3026 RMK A01 T00361086  RH  041%=      5-min Rain = 0
KHO1 130431Z 11008KT 04/M09 A3027 RMK A01 T00361086  RH  041%=      5-min Rain = 0
KHO1 130432Z 11008KT 04/M09 A3027 RMK A01 T00351086  RH  041%=      5-min Rain = 0
KHO1 130433Z 11009KT 04/M09 A3027 RMK A01 T00351085  RH  041%=      5-min Rain = 0
KHO1 130434Z 11009KT 04/M09 A3027 RMK A01 T00361085  RH  041%=      5-min Rain = 0
KHO1 130435Z 11008KT 04/M09 A3027 RMK A01 T00361085  RH  041%=      5-min Rain = 0
KHO1 130436Z 11007KT 04/M09 A3027 RMK A01 T00361086  RH  041%=      5-min Rain = 0
KHO1 130437Z 11007KT 04/M09 A3027 RMK A01 T00361086  RH  041%=      5-min Rain = 0
KHO1 130438Z 10007KT 04/M09 A3028 RMK A01 T00351086  RH  041%=      5-min Rain = 0
KHO1 130439Z 10006KT 04/M09 A3028 RMK A01 T00351086  RH  041%=      5-min Rain = 0
KHO1 130440Z 09005KT 03/M09 A3028 RMK A01 T00341087  RH  041%=      5-min Rain = 0
KHO1 130441Z 09005KT 03/M09 A3028 RMK A01 T00341086  RH  041%=      5-min Rain = 0
KHO1 130442Z 09005KT 03/M09 A3028 RMK A01 T00341086  RH  041%=      5-min Rain = 0
KHO1 130443Z 09005KT 03/M09 A3028 RMK A01 T00341086  RH  041%=      5-min Rain = 0
KHO1 130444Z 09005KT 03/M09 A3028 RMK A01 T00331087  RH  041%=      5-min Rain = 0
KHO1 130445Z 09006KT 03/M09 A3028 RMK A01 T00331087  RH  041%=      5-min Rain = 0
KHO1 130446Z 09006KT 03/M09 A3028 RMK A01 T00321087  RH  041%=      5-min Rain = 0
KHO1 130447Z 09008KT 03/M09 A3029 RMK A01 T00321087  RH  041%=      5-min Rain = 0
KHO1 130448Z 09007KT 03/M09 A3029 RMK A01 T00321087  RH  041%=      5-min Rain = 0
KHO1 130449Z 09006KT 03/M09 A3029 RMK A01 T00321087  RH  041%=      5-min Rain = 0
KHO1 130450Z 08006KT 03/M09 A3029 RMK A01 T00321087  RH  041%=      5-min Rain = 0
KHO1 130451Z 08006KT 03/M09 A3029 RMK A01 T00311087  RH  042%=      5-min Rain = 0
KHO1 130452Z 08006KT 03/M09 A3029 RMK A01 T00311087  RH  042%=      5-min Rain = 0
KHO1 130453Z 08006KT 03/M09 A3029 RMK A01 T00301088  RH  042%=      5-min Rain = 0
KHO1 130454Z 07006KT 03/M09 A3029 RMK A01 T00291088  RH  042%=      5-min Rain = 0
KHO1 130455Z 08007KT 03/M09 A3029 RMK A01 T00281088  RH  042%=      5-min Rain = 0
KHO1 130456Z 08006KT 03/M09 A3029 RMK A01 T00271089  RH  042%=      5-min Rain = 0
KHO1 130457Z 08007KT 03/M09 A303 RMK A01 T00261089  RH  043%=      5-min Rain = 0
KHO1 130458Z 08008KT 03/M09 A303 RMK A01 T00251089  RH  043%=      5-min Rain = 0
KHO1 130459Z 08008KT 02/M09 A303 RMK A01 T00241090  RH  043%=      5-min Rain = 0
KHO1 130500Z 08008KT 02/M09 A303 RMK A01 T00241090  RH  043%=      5-min Rain = 0
KHO1 130501Z 08009KT 02/M09 A303 RMK A01 T00241090  RH  043%=      5-min Rain = 0
KHO1 130502Z 08009KT 02/M09 A303 RMK A01 T00241091  RH  043%=      5-min Rain = 0
KHO1 130503Z 08009KT 02/M09 A303 RMK A01 T00241092  RH  042%=      5-min Rain = 0
KHO1 130504Z 08008KT 02/M09 A3031 RMK A01 T00241093  RH  042%=      5-min Rain = 0
KHO1 130505Z 08009KT 02/M09 A3031 RMK A01 T00241094  RH  042%=      5-min Rain = 0
KHO1 130506Z 07008KT 02/M09 A3031 RMK A01 T00241094  RH  041%=      5-min Rain = 0
KHO1 130507Z 07008KT 02/M10 A3031 RMK A01 T00241095  RH  041%=      5-min Rain = 0
KHO1 130508Z 08008KT 02/M10 A3031 RMK A01 T00241096  RH  041%=      5-min Rain = 0
KHO1 130509Z 08007KT 02/M10 A3031 RMK A01 T00241097  RH  041%=      5-min Rain = 0
KHO1 130510Z 08007KT 02/M10 A3031 RMK A01 T00231098  RH  040%=      5-min Rain = 0
KHO1 130511Z 08008KT 02/M10 A3031 RMK A01 T00231098  RH  040%=      5-min Rain = 0
KHO1 130512Z 08008KT 02/M10 A3031 RMK A01 T00231099  RH  040%=      5-min Rain = 0
KHO1 130513Z 08008KT 02/M10 A3031 RMK A01 T00231099  RH  040%=      5-min Rain = 0
KHO1 130514Z 08007KT 02/M10 A3031 RMK A01 T00231100  RH  040%=      5-min Rain = 0
KHO1 130515Z 08008KT 02/M10 A3031 RMK A01 T00231101  RH  040%=      5-min Rain = 0
KHO1 130516Z 08008KT 02/M10 A3031 RMK A01 T00231101  RH  039%=      5-min Rain = 0
KHO1 130517Z 08009KT 02/M10 A3032 RMK A01 T00231102  RH  039%=      5-min Rain = 0
KHO1 130518Z 08009KT 02/M10 A3032 RMK A01 T00231102  RH  039%=      5-min Rain = 0
KHO1 130519Z 07010KT 02/M10 A3032 RMK A01 T00231103  RH  039%=      5-min Rain = 0
KHO1 130520Z 08010KT 02/M10 A3032 RMK A01 T00231104  RH  039%=      5-min Rain = 0
KHO1 130521Z 09010KT 02/M10 A3032 RMK A01 T00231104  RH  038%=      5-min Rain = 0
KHO1 130522Z 09011KT 02/M11 A3032 RMK A01 T00231105  RH  038%=      5-min Rain = 0
KHO1 130523Z 09013G19KT 02/M11 A3032 RMK A01 T00241106  RH  038%=      5-min Rain = 0
KHO1 130524Z 09012KT 02/M11 A3031 RMK A01 T00241107  RH  037%=      5-min Rain = 0
KHO1 130525Z 09010KT 02/M11 A3031 RMK A01 T00241107  RH  037%=      5-min Rain = 0
KHO1 130526Z 09010KT 02/M11 A3032 RMK A01 T00241107  RH  037%=      5-min Rain = 0
KHO1 130527Z 09011KT 02/M11 A3032 RMK A01 T00241108  RH  037%=      5-min Rain = 0
KHO1 130528Z 08010KT 02/M11 A3032 RMK A01 T00241107  RH  037%=      5-min Rain = 0
KHO1 130529Z 08009KT 02/M11 A3033 RMK A01 T00241107  RH  037%=      5-min Rain = 0
KHO1 130530Z 08008KT 02/M11 A3033 RMK A01 T00241108  RH  037%=      5-min Rain = 0
KHO1 130531Z 08010G15KT 02/M11 A3033 RMK A01 T00231108  RH  037%=      5-min Rain = 0
KHO1 130532Z 08008KT 02/M11 A3033 RMK A01 T00231108  RH  037%=      5-min Rain = 0
KHO1 130533Z 09009KT 02/M11 A3033 RMK A01 T00231108  RH  037%=      5-min Rain = 0
KHO1 130534Z 08007KT 02/M11 A3033 RMK A01 T00231108  RH  037%=      5-min Rain = 0
KHO1 130535Z 07007KT 02/M11 A3033 RMK A01 T00221108  RH  037%=      5-min Rain = 0
KHO1 130536Z 08008KT 02/M11 A3033 RMK A01 T00211109  RH  037%=      5-min Rain = 0
KHO1 130537Z 08007KT 02/M11 A3033 RMK A01 T00201109  RH  038%=      5-min Rain = 0
KHO1 130538Z 07007KT 02/M11 A3033 RMK A01 T00201110  RH  038%=      5-min Rain = 0
KHO1 130539Z 07011KT 02/M11 A3034 RMK A01 T00191111  RH  038%=      5-min Rain = 0
KHO1 130540Z 07010KT 02/M11 A3034 RMK A01 T00181112  RH  037%=      5-min Rain = 0
KHO1 130541Z 07009KT 02/M11 A3034 RMK A01 T00181112  RH  037%=      5-min Rain = 0
KHO1 130542Z 08009KT 02/M11 A3034 RMK A01 T00171113  RH  037%=      5-min Rain = 0
KHO1 130543Z 09009KT 02/M11 A3034 RMK A01 T00171114  RH  037%=      5-min Rain = 0
KHO1 130544Z 08009KT 02/M11 A3033 RMK A01 T00161114  RH  037%=      5-min Rain = 0
KHO1 130545Z 08008KT 02/M11 A3034 RMK A01 T00161113  RH  038%=      5-min Rain = 0
KHO1 130546Z 07009KT 02/M11 A3034 RMK A01 T00151114  RH  038%=      5-min Rain = 0
KHO1 130547Z 07008KT 02/M12 A3034 RMK A01 T00151115  RH  038%=      5-min Rain = 0
KHO1 130548Z 07008KT 01/M12 A3034 RMK A01 T00141115  RH  038%=      5-min Rain = 0
KHO1 130549Z 07009KT 01/M12 A3034 RMK A01 T00141115  RH  038%=      5-min Rain = 0
KHO1 130550Z 08007KT 01/M12 A3034 RMK A01 T00131116  RH  037%=      5-min Rain = 0
KHO1 130551Z 07008KT 01/M12 A3034 RMK A01 T00131116  RH  038%=      5-min Rain = 0
KHO1 130552Z 08008KT 01/M12 A3034 RMK A01 T00131116  RH  038%=      5-min Rain = 0
KHO1 130553Z 07008KT 01/M12 A3034 RMK A01 T00121116  RH  038%=      5-min Rain = 0
KHO1 130554Z 07008KT 01/M12 A3034 RMK A01 T00121117  RH  038%=      5-min Rain = 0
KHO1 130555Z 08007KT 01/M12 A3034 RMK A01 T00111117  RH  038%=      5-min Rain = 0
KHO1 130556Z 07007KT 01/M12 A3034 RMK A01 T00111117  RH  038%=      5-min Rain = 0
KHO1 130557Z 07008KT 01/M12 A3034 RMK A01 T00101117  RH  038%=      5-min Rain = 0
KHO1 130558Z 07008KT 01/M12 A3034 RMK A01 T00101117  RH  038%=      5-min Rain = 0
KHO1 130559Z 07007KT 01/M12 A3034 RMK A01 T00101117  RH  038%=      5-min Rain = 0
KHO1 130600Z 07008KT 01/M12 A3034 RMK A01 T00101117  RH  038%=      5-min Rain = 0

Page generated in 1.1168 seconds.